     2.10           OBSERVATION DATA    G (GPS)             RINEX VERSION / TYPE
teqc 2002Mar14 Lou Estey 20020315 16:29:03UTC               PGM / RUN BY / DATE
Solaris 2.7|Ultra 2|cc SC5.0|=+-|*Sparc                     COMMENT
BIT 2 OF LLI FLAGS DATA COLLECTED UNDER A/S CONDITION       COMMENT
-Unknown-                                                   MARKER NAME
-Unknown- -Unknown-                                         OBSERVER / AGENCY
-Unknown- TRIMBLE -Unknown-                                 REC # / TYPE / VERS
-Unknown- -Unknown-                                         ANT # / TYPE
        0.0000        0.0000        0.0000                  APPROX POSITION XYZ
        0.0000        0.0000        0.0000                  ANTENNA: DELTA H/E/N
     1     1                                                WAVELENGTH FACT L1/2
     7    L1    L2    C1    P2    P1    D1    D2            # / TYPES OF OBSERV
SNR is mapped to RINEX snr flag value [1-9]                 COMMENT
L1: 3 -> 1; 8 -> 5; 40 -> 9                                 COMMENT
L2: 1 -> 1; 5 -> 5; 60 -> 9                                 COMMENT
  1996     6     9     0     1    0.0000000     GPS         TIME OF FIRST OBS
                                                            END OF HEADER
 96  6  9  0  1  0.0000000  0  7G16G17G22G23G 6G26G28
   4166003.42945   3176530.15145  23185349.3384   23185353.9104
     -3263.3084
  -2016955.48247  -1529126.33447  20818479.1314   20818485.0164
      1249.4244
    -23151.00945       533.89545  23682119.2144   23682124.6764
      -415.6554
  -3476204.79046  -2584842.90046  22157851.8044   22157857.7014
      2301.3354
   2467279.27747   1889721.12446  21021237.9114   21021243.5264
     -2213.1804
  -2319204.78046  -1724915.86746  22030384.2234   22030389.3694
      1359.2734
  -4163414.038 4  -3241574.734 5  23498469.019    23498463.609
      3111.086
 96  6  9  0  1 30.0000000  0  7G16G17G22G23G 6G26G28
   4263980.74045   3252876.05845  23203994.5364   23204002.0974
     -3268.7044
  -2054307.65047  -1558231.90947  20811371.3884   20811377.2724
      1240.6684
    -10408.07845     10463.43445  23684542.8044   23684549.5214
      -433.8544
  -3545093.36446  -2638522.26446  22144741.5604   22144747.2924
      2291.3004
   2533919.37547   1941648.45946  21033919.2824   21033925.0964
     -2229.5894
  -2359708.02546  -1756476.81246  22022676.1294   22022681.7094
      1340.7524
  -4256639.509 4  -3314217.930 5  23480729.009    23480723.143
      3103.862
 96  6  9  0  2  0.0000000  0  7G16G17G22G23G 6G26G28
   4362140.32345   3329364.04045  23222673.3184   23222679.3434
     -3275.1124
  -2091389.02447  -1587126.47947  20804314.8664   20804320.8334
      1231.6034
      2887.04745     20823.31745  23687072.7964   23687078.4344
      -452.2794
  -3613670.92346  -2691959.31146  22131692.1164   22131698.1994
      2280.6624
   2601062.59847   1993967.84046  21046695.5514   21046701.2134
     -2246.2784
  -2399641.45146  -1787593.74946  22015077.3184   22015083.2614
      1321.9304
  -4349633.277 4  -3386680.589 5  23463032.660    23463027.168
      3095.894
 96  6  9  0  2 30.0000000  0  7G16G17G22G23G 6G26G28
   4460508.85245   3406014.79245  23241393.5684   23241399.7694
     -3282.0584
  -2128186.29547  -1615799.67347  20797312.3844   20797318.1864
      1222.1344
     16742.01045     31619.31945  23689708.0724   23689714.2144
      -470.8094
  -3681910.64946  -2745133.09846  22118706.6714   22118712.4734
      2269.2264
   2668708.73647   2046679.10246  21059567.8804   21059573.2024
     -2262.8234
  -2439002.10746  -1818264.36746  22007586.2854   22007591.6894
      1302.5514
  -4442374.820 4  -3458946.671 5  23445384.673    23445378.965
      3087.475
 96  6  9  0  3  0.0000000  0  7G16G17G22G23G 6G26G28
   4559078.16545   3482822.03345  23260149.1104   23260155.7924
     -3288.8114
  -2164698.14248  -1644250.45947  20790365.0204   20790370.8814
      1212.4704
     31154.00345     42849.44445  23692450.9884   23692457.1784
      -489.5994
  -3749813.45446  -2798044.32646  22105784.8114   22105790.7784
      2258.2554
   2736849.58047   2099775.84546  21072535.1124   21072540.4224
     -2279.5104
  -2477774.76946  -1848476.81546  22000208.2844   22000213.5594
      1282.8304
  -4534865.331 5  -3531017.188 5  23427783.811    23427779.259
      3079.057
 96  6  9  0  3 30.0000000  0  7G16G17G22G23G 6G26G28
   4657840.44944   3559779.63345  23278941.7834   23278948.7344
     -3295.5294
  -2200930.84247  -1672483.72747  20783469.9604   20783475.8684
      1202.6854
     46117.20645     54509.01545  23695297.7094   23695303.5824
      -507.9504
  -3817409.26946  -2850716.36646  22092921.4714   22092927.4614
      2247.9874
   2805482.78547   2153256.25346  21085595.9074   21085601.1354
     -2296.0514
  -2515973.35446  -1878241.92046  21992939.9814   21992945.1864
      1263.5674
  -4627119.217 4  -3602903.315 5  23410228.692    23410222.563
      3071.054
 96  6  9  0  4  0.0000000  0  7G16G17G22G23G 6G26G28
   4756803.10345   3636893.41745  23297776.2934   23297782.9984
     -3301.9324
  -2236856.01447  -1700477.36147  20776633.4074   20776639.4444
      1192.0764
     61631.02445     66597.76345  23698251.2414   23698257.7944
      -526.5214
  -3884686.55447  -2903140.19446  22080119.9454   22080125.9704
      2237.0484
   2874608.12247   2207120.13146  21098749.7584   21098754.7864
     -2312.4964
  -2553587.34546  -1907551.49946  21985781.6474   21985786.7934
      1243.9764
  -4719128.614 4  -3674598.882 5  23392719.352    23392713.804
      3062.777
 96  6  9  0  4 30.0000000  0  7G16G17G22G23G 6G26G28
   4855955.04845   3714154.60845  23316644.6094   23316649.5914
     -3308.0534
  -2272447.52647  -1728210.99447  20769860.4534   20769866.5134
      1180.6654
     77710.55645     79127.23845  23701310.2254   23701315.5824
      -545.4034
  -3951636.82947  -2955309.21546  22067379.7424   22067385.7564
      2226.3454
   2944236.15547   2261375.72446  21111999.2034   21112004.4204
     -2329.3394
  -2590608.89446  -1936399.43446  21978738.3504   21978743.1104
      1224.0714
  -4810885.551 4  -3746097.760 5  23375259.159    23375253.381
      3054.410
 96  6  9  0  5  0.0000000  0  7G16G17G22G23G 6G26G28
   4955295.59745   3791562.82545  23335547.8714   23335554.3304
     -3314.4054
  -2307681.62247  -1755666.12647  20763155.6184   20763161.5504
      1168.6404
     94370.04745     92108.65045  23704482.4504   23704488.2054
      -564.8984
  -4018255.55246  -3007219.87446  22054701.8464   22054707.5904
      2215.1204
   3014373.32247   2316028.05446  21125345.8534   21125351.3634
     -2346.1894
  -2627024.80346  -1964775.44746  21971807.3734   21971812.0384
      1204.1024
  -4902382.562 3  -3817394.073 5  23357847.924    23357841.303
      3045.658
 96  6  9  0  5 30.0000000  0  7G16G17G22G23G 6G26G28
   5054823.08345   3869116.66845  23354487.8014   23354495.3624
     -3320.7324
  -2342559.31447  -1782843.53447  20756519.0144   20756525.0284
      1156.4464
    111603.74345    105537.51745  23707761.0264   23707766.7124
      -583.9894
  -4084532.60947  -3058864.31046  22042090.3544   22042095.9814
      2203.2634
   3085008.03447   2371068.07446  21138788.2994   21138793.3514
     -2362.7504
  -2662856.48646  -1992696.22046  21964988.7714   21964993.8474
      1184.6654
  -4993618.125 4  -3888486.694 5  23340485.419    23340480.809
      3036.638
 96  6  9  0  6  0.0000000  0  7G16G17G22G23G 6G26G28
   5154515.60445   3946799.13345  23373458.1504   23373465.3714
     -3325.6954
  -2377094.24248  -1809753.86047  20749947.3404   20749953.2134
      1145.6404
    129386.78545    119394.39145  23711144.2124   23711150.5774
      -601.9454
  -4150466.60447  -3110241.42546  22029543.4254   22029549.4624
      2191.9974
   3156113.56047   2426474.96346  21152317.9634   21152323.6254
     -2378.0894
  -2698127.88646  -2020180.40946  21958276.8354   21958281.6524
      1166.5554
  -5084596.815 5  -3959379.167 5  23323173.136    23323168.969
      3028.230
 96  6  9  0  6 30.0000000  0  8G16G17G21G22G23G 6G26G28
   5254372.91643   4024610.01845  23392458.5294   23392465.3634
     -3331.6924
  -2411299.48147  -1836407.28547  20743437.9284   20743443.8004
      1134.6784
         2.73253                  25403903.3694
      3169.8174
    147711.31945    133673.23345  23714631.0494   23714636.8754
      -619.8444
  -4216053.10747  -3161347.77546  22017063.1604   22017068.9164
      2180.0774
   3227697.27247   2482254.46246  21165940.9534   21165946.0884
     -2394.2594
  -2732852.39446  -2047238.44346  21951668.4404   21951674.0434
      1148.0634
  -5175310.202 4  -4030064.891 5  23305911.404    23305906.089
      3019.098
 96  6  9  0  7  0.0000000  0  8G16G17G21G22G23G 6G26G28
   5354405.58444   4102557.49245  23411495.4274   23411504.4184
     -3337.4664
  -2445191.30447  -1862816.48547  20736988.3954   20736994.3034
      1124.6644
    -95047.43542                  25385811.0084
      3166.4274
    166566.58745    148365.65245  23718220.2574   23718226.2594
      -637.4804
  -4281275.38946  -3212170.28146  22004650.9234   22004656.9844
      2167.8104
   3299759.83247   2538407.08646  21179653.8114   21179659.5084
     -2410.3654
  -2767018.53246  -2073861.38646  21945166.9404   21945172.2974
      1129.3964
  -5265749.180 4  -4100536.760 5  23288701.268    23288696.436
      3009.832
 96  6  9  0  7 30.0000000  0  8G16G17G21G22G23G 6G26G28
   5454612.07143   4180640.41645  23430564.2434   23430573.5744
     -3343.1374
  -2478791.16448  -1888998.18447  20730594.6464   20730600.5074
      1115.1364
    -15814.65751                  25367743.4544
      3163.1684
    185947.23145    163467.45845  23721907.9684   23721913.5604
      -654.8114
  -4346135.24947  -3262710.41146  21992308.5824   21992314.6434
      2156.1104
   3372311.84747   2594941.10046  21193459.8444   21193465.1784
     -2426.6134
  -2800620.21046                  21938774.1764
      1110.3574
  -5355909.935 5  -4170791.864 5  23271543.313    23271539.596
      3000.707
 96  6  9  0  8  0.0000000  0  8G16G17G21G22G23G 6G26G28
   5554994.29844   4258860.33345  23449667.0024   23449673.7304
     -3349.1964
  -2512101.64647  -1914954.40347  20724255.6154   20724261.5584
      1105.3304
    -34760.64752                  25349697.9594
      3159.5234
    205860.67245    178984.39245  23725696.0504   23725702.0634
      -672.9164
  -4410636.62147  -3312971.19846  21980034.5584   21980040.2674
      2143.7924
   3445363.13747   2651864.17146  21207360.7224   21207366.5014
     -2443.6764
  -2833633.91746                  21932491.3574
      1090.3764
  -5445789.647 4  -4240827.983 5  23254441.026    23254435.885
      2991.156
 96  6  9  0  8 30.0000000  0  8G16G17G21G22G23G 6G26G28
   5655563.14743   4337225.60845  23468804.4734   23468809.8414
     -3355.5624
  -2545113.18647  -1940677.67847  20717973.6864   20717979.5474
      1095.3174
   -129490.32942                  25331670.0334
      3155.6534
    226322.90145    194928.93145  23729589.7604   23729596.3944
      -691.4564
  -4474769.55447  -3362944.88446  21967830.2804   21967836.1534
      2131.4764
   3518927.37347   2709186.93946  21221359.6444   21221364.7904
     -2460.6374
  -2866047.60946    -16784.85856  21926322.0904   21926327.8224
      1070.2624
  -5535385.705 5  -4310643.053 5  23237390.631    23237386.385
      2981.756
 96  6  9  0  9  0.0000000  0  8G16G17G21G22G23G 6G26G28
   5756316.47542   4415734.71745  23487975.7934   23487981.7484
     -3361.5714
  -2577821.43447  -1966164.61347  20711749.3724   20711755.3384
      1084.9014
   -224100.08443                  25313668.2004
      3151.4684
    247356.05045    211318.39345  23733593.4234   23733598.9094
      -710.9864
  -4538527.86447  -3412626.65846  21955697.8524   21955703.7254
      2118.8444
   3592998.89247   2766904.98346  21235455.0564   21235460.4014
     -2477.7724
  -2897856.24146    -41570.80146  21920269.5734   21920274.8834
      1050.2204
  -5624698.539 4  -4380237.458 5  23220395.193    23220389.390
      2972.184
 96  6  9  0  9 30.0000000  0  8G16G17G21G22G23G 6G26G28
   5857242.84043   4494378.56445  23507181.5204   23507186.2904
     -3367.4884
  -2610216.98448  -1991407.89347  20705585.3354   20705591.0794
      1073.9784
   -318599.98343                  25295684.4084
      3147.8884
    268962.32345    228154.42345  23737704.3634   23737709.3684
      -730.0374
  -4601916.41847  -3462020.30746  21943634.6634   21943640.5124
      2106.3114
   3667569.83447   2825012.21046  21249645.2364   21249650.8984
     -2494.1934
  -2929077.87046    -65899.31346  21914328.4994   21914334.1964
      1030.5534
  -5713732.676 5  -4449614.680 5  23203452.995    23203446.769
      2962.743
 96  6  9  0 10  0.0000000  0  8G16G17G21G22G23G 6G26G28
   5958346.14043   4573160.40045  23526421.4294   23526430.3964
     -3372.8604
  -2642274.59747  -2016387.83847  20699484.7364   20699490.6794
      1063.0734
   -412985.82243                  25277724.3304
      3144.3474
    291145.59545    245440.11745  23741926.0284   23741931.8904
      -748.8324
  -4664918.42547  -3511112.76646  21931646.7674   21931652.4404
      2093.7784
   3742638.80347   2883507.50046  21263930.4424   21263935.6814
     -2510.4174
  -2959709.54646    -89768.13846  21908499.5524   21908504.9094
      1011.5344
  -5802475.384 4  -4518764.815 5  23186565.694    23186559.719
      2953.334
 96  6  9  0 10 30.0000000  0  8G16G17G21G22G23G 6G26G28
   6059602.75143   4652061.56245  23545689.2204   23545697.3914
     -3377.7614
  -2674006.89047  -2041114.29447  20693446.5924   20693452.5824
      1052.2224
   -507267.17042                  25259780.9704
      3140.8984
    313884.70045    263158.86345  23746254.1804   23746258.9624
      -767.3414
  -4727556.07547  -3559921.30346  21919727.1514   21919733.0354
      2081.8324
   3818185.17947   2942374.78746  21278307.1444   21278312.4074
     -2526.2444
  -2989771.75546   -113193.22446  21902779.0744   21902783.7874
       992.3594
  -5890935.450 4  -4587694.671 5  23169732.131    23169726.570
      2943.744
 96  6  9  0 11  0.0000000  0  8G16G17G21G22G23G 6G26G28
   6160989.21344   4731063.98045  23564983.2314   23564988.8814
     -3381.2324
  -2705417.04048  -2065589.72547  20687469.1814   20687475.0194
      1041.8014
   -601453.87542    -58707.43855  25241857.9264   25241866.2024
      3138.3164
    337166.29545    281300.37645  23750683.4254   23750690.4344
      -784.5684
  -4789845.05747  -3608458.14146  21907873.7844   21907879.6344
      2071.0144
   3894202.13547   3001608.76446  21292772.2004   21292778.1784
     -2541.4044
  -3019260.49246   -136171.44046  21897167.3244   21897172.2014
       973.6454
  -5979112.885 5  -4656404.366 5  23152951.634    23152947.174
      2934.839
 96  6  9  0 11 30.0000000  0  8G16G17G21G22G23G 6G26G28
   6262491.99044   4810157.08645  23584299.8484   23584302.8964
     -3385.5724
  -2736501.76548  -2089811.58447  20681553.9664   20681559.6164
      1030.4254
   -695549.18043   -132028.27645  25223951.3324   25223958.7174
      3134.6834
    360963.57245    299843.64245  23755211.6974   23755216.7374
      -801.9774
  -4851810.10147  -3656742.56146  21896082.2554   21896088.2224
      2060.0484
   3970671.38847   3061195.17646  21307323.9374   21307329.5524
     -2556.5604
  -3048173.42446   -158700.98946  21891665.4234   21891670.7914
       953.8534
  -6067012.594 5  -4724897.648 5  23136225.300    23136219.975
      2925.076
 96  6  9  0 12  0.0000000  0  8G16G17G21G22G23G 6G26G28
   6364119.59243   4889347.34145  23603637.9404   23603644.8094
     -3389.8474
  -2767252.80848  -2113773.43247  20675702.2274   20675708.1114
      1019.5004
   -789541.88744   -205269.26345  25206067.3014   25206075.0844
      3131.4254
    385283.79245    318794.49745  23759841.4964   23759847.7324
      -819.5324
  -4913458.95447  -3704780.60046  21884350.6194   21884356.5744
      2049.7424
   4047588.24647   3121130.36046  21321961.0554   21321966.5064
     -2571.3564
  -3076498.62446   -180772.55546  21886275.1444   21886280.1374
       934.2454
  -6154625.772 4  -4793167.590 5  23119553.028    23119547.833
      2915.644
 96  6  9  0 12 30.0000000  0  8G16G17G21G22G23G 6G26G28
   6465894.65442   4968652.62845  23623004.0674   23623012.9534
     -3394.8654
  -2797655.30048  -2137463.67847  20669916.6894   20669922.4104
      1007.6204
   -883428.52643   -278427.54445  25188201.4774   25188206.9864
      3128.0404
    410144.53445    338166.45445  23764571.3664   23764576.3834
      -837.5404
  -4974780.17547  -3752563.34746  21872681.0924   21872686.8014
      2038.6464
   4124960.62747   3181420.51046  21336683.6324   21336688.7664
     -2586.5074
  -3104210.03746   -202365.85746  21881001.7904   21881006.9014
       913.5384
  -6241937.921 5  -4861202.993 5  23102938.546    23102932.959
      2905.534
 96  6  9  0 13  0.0000000  0  8G16G17G21G22G23G 6G26G28
   6567815.35243   5048071.19345  23642401.1124   23642407.3834
     -3399.7454
  -2827706.58448  -2160880.26247  20664198.2544   20664204.2324
       995.8754
   -977220.15743   -351511.85145  25170349.9464   25170358.6684
      3124.8144
    435534.49845    357950.81045  23769402.5054   23769409.1284
      -855.0584
  -5035771.14747  -3800088.75346  21861075.3284   21861081.3184
      2027.4474
   4202782.98947   3242061.29246  21351492.7484   21351498.0474
     -2601.5844
  -3131312.69846   -223484.79346  21875844.2054   21875849.2224
       893.3364
  -6328956.226 5  -4929009.452 5  23086378.983    23086373.626
      2895.711
 96  6  9  0 13 30.0000000  0  8G16G17G21G22G23G 6G26G28
   6669882.89042   5127604.23145  23661821.9224   23661828.0184
     -3404.7984
  -2857415.79048  -2184030.28447  20658544.9644   20658550.6374
       984.7314
  -1070920.85943   -424525.22445  25152519.5074   25152528.2754
      3121.7514
    461442.80145    378139.11745  23774334.9104   23774340.6304
      -872.2574
  -5096427.02847  -3847353.06246  21849532.6274   21849538.4884
      2015.9594
   4281049.12247   3303047.87146  21366387.1754   21366392.7784
     -2616.4824
  -3157820.04646   -244139.86146  21870799.8594   21870805.5214
       873.7194
  -6415686.174 5  -4996591.179 5  23069875.918    23069869.487
      2886.110
 96  6  9  0 14  0.0000000  0  8G16G17G21G22G23G 6G26G28
   6772117.25442   5207267.46845  23681277.4024   23681284.3654
     -3410.5904
  -2886780.86348  -2206912.15847  20652956.3024   20652962.2334
       973.1294
  -1164513.14943   -497454.10845  25134711.7534   25134715.7624
      3117.9554
    487885.35045    398743.69645  23779365.0914   23779372.2414
      -890.3804
  -5156710.03847  -3894326.81246  21838061.2084   21838067.0934
      2002.9084
   4359790.95647   3364405.12046  21381370.8014   21381376.1584
     -2632.9774
  -3183718.93146   -264320.79046  21865870.9184   21865876.2634
       852.9404
  -6502110.102 5  -5063934.435 5  23053429.188    23053423.598
      2875.606
 96  6  9  0 14 30.0000000  0  8G16G17G21G22G23G 6G26G28
   6874507.24242   5287051.83644  23700760.4124   23700770.6104
     -3415.3134
  -2915806.88648  -2229529.83447  20647433.3214   20647439.1594
       962.0094
  -1257996.37743   -570298.04745  25116920.0784   25116924.4974
      3114.1504
    514857.16545    419760.71745  23784497.9054   23784503.3794
      -907.6674
  -5216604.03347  -3940997.42846  21826663.4324   21826669.3754
      1990.1434
   4439030.11147   3426149.89246  21396449.6664   21396455.5514
     -2649.6464
  -3209002.51946   -284022.28046  21861060.2124   21861065.8154
       832.7474
  -6588223.750 5  -5131035.956 5  23037041.690    23037037.062
      2865.329
 96  6  9  0 15  0.0000000  0  8G16G17G21G22G23G 6G26G28
   6977030.78942   5366940.24545  23720271.8014   23720278.0024
     -3419.5324
  -2944505.64248  -2251892.50047  20641972.1254   20641977.9274
       951.3284
  -1351358.76044   -643047.90745  25099154.4404   25099162.0134
      3110.0864
    542344.71945    441179.53045  23789727.1214   23789734.1894
      -924.8244
  -5276115.27147  -3987369.80146  21815339.1104   21815344.9824
      1977.2654
   4518771.34647   3488285.89846  21411623.5684   21411628.8904
     -2666.3504
  -3233689.29146   -303258.70946  21856362.4094   21856368.1064
       812.9784
  -6674027.996 5  -5197896.369 5  23020714.030    23020708.781
      2854.923
 96  6  9  0 15 30.0000000  0  8G16G17G21G22G23G 6G26G28
   7079671.77242   5446920.29345  23739803.4474   23739814.6184
     -3423.2944
  -2972903.04348  -2274020.34147  20636568.2354   20636573.8854
       941.5924
  -1444616.16444   -715715.88445  25081408.2114   25081412.8534
      3106.7954
    570337.26245    462991.90345  23795056.5354   23795062.1624
      -941.5104
  -5335254.32447  -4033452.15446  21804085.5864   21804091.4594
      1965.0314
   4598990.43547   3550794.26146  21426889.2494   21426894.6294
     -2681.8344
  -3257794.62146   -322042.07746  21851775.3384   21851780.8594
       793.7114
  -6759530.372 5  -5264521.550 5  23004443.363    23004438.526
      2844.962
 96  6  9  0 16  0.0000000  0  8G16G17G21G22G23G 6G26G28
   7182423.93441   5526986.74544  23759354.5284   23759353.5674
     -3426.9404
  -3001002.98348  -2295916.39447  20631221.2354   20631226.8394
       931.3774
  -1537773.64344   -788306.07045  25063681.6594   25063686.4884
      3103.4564
    598837.51745    485199.87545  23800476.6254   23800482.7564
      -958.7814
  -5394026.30647  -4079248.49346  21792901.5204   21792907.5104
      1952.8624
   4679675.34947   3613665.61646  21442243.2434   21442248.9404
     -2697.3584
  -3281309.76046   -340365.54446  21847301.0834   21847305.8074
       773.6304
  -6844728.223 5  -5330909.464 5  22988230.884    22988225.007
      2834.580
 96  6  9  0 16 30.0000000  0  8G16G17G21G22G23G 6G26G28
   7285292.36341                  23778934.9124
     -3430.4334
  -3028782.04548  -2317562.41247  20625934.8794   20625940.8114
       921.0914
  -1630811.74144   -860803.15845  25045976.2194   25045983.2294
      3099.5674
    627864.45045    507818.27345  23806002.7154   23806009.5264
      -975.7264
  -5452422.52447  -4124752.01146  21781788.6794   21781794.4824
      1940.7804
   4760834.13347   3676906.19846  21457687.2414   21457692.7624
     -2712.4744
  -3304212.72446   -358212.00046  21842942.8244   21842947.8644
       753.7464
  -6929599.648 5  -5397043.000 5  22972080.528    22972075.067
      2824.063
 96  6  9  0 17  0.0000000  0  8G16G17G21G22G23G 6G26G28
   7388258.11941                  23798526.2904
     -3433.7324
  -3056266.34248  -2338978.74547  20620705.0464   20620710.9074
       911.4374
  -1723746.98844   -933220.08245  25028291.5204   25028299.0934
      3096.4064
    657389.74845    530824.95545  23811620.0264   23811625.6764
      -992.5424
  -5510466.19147  -4169980.81646  21770743.6484   21770749.5324
      1928.9594
   4842422.29447   3740481.37146  21473213.4574   21473218.9434
     -2726.4904
  -3326530.40346   -375602.38146  21838695.6564   21838701.0014
       734.2724
  -7014169.663 5  -5462941.675 5  22955987.082    22955981.240
      2814.188
 96  6  9  0 17 30.0000000  0  8G16G17G21G22G23G 6G26G28
     17183.90751     61581.71954  23818141.7104   23818150.7484
     -3437.6074
  -3083448.20748  -2360159.41047  20615532.1274   20615538.1534
       900.9594
  -1816575.84243  -1005554.16645  25010626.8414   25010634.9184
      3092.4264
    687437.75545    554238.94345  23817339.2794   23817344.2614
     -1010.1764
  -5568146.50747  -4214926.49746  21759767.4314   21759773.4454
      1916.7654
   4924438.89947   3804390.38946  21488820.1264   21488825.7064
     -2740.9594
  -3348250.16846   -392526.85846  21834562.4244   21834567.8984
       713.9874
  -7098434.873 5  -5528602.861 5  22939951.582    22939946.625
      2803.857
 96  6  9  0 18  0.0000000  0  8G16G17G21G22G23G 6G26G28
    120371.02341    141987.34044  23837775.9934   23837784.8434
     -3441.3234
  -3110304.11948  -2381086.09547  20610421.3924   20610426.8084
       889.6254
  -1909277.26143  -1077788.90445  24992986.9204   24992993.2274
      3087.7894
    718014.50445    578064.94545  23823155.5244   23823161.1044
     -1028.1334
  -5625460.80647  -4259586.96946  21748860.4214   21748866.3184
      1904.4354
   5006895.59647   3868642.34246  21504511.0274   21504516.5014
     -2755.9024
  -3369357.50546   -408974.12846  21830545.6704   21830550.8984
       693.4824
  -7182388.856 5  -5594021.542 5  22923975.502    22923970.697
      2793.258
 96  6  9  0 18 30.0000000  0  8G16G17G21G22G23G 6G26G28
    223687.08243    222493.24645  23857437.2944   23857447.3634
     -3446.2964
  -3136813.05448  -2401742.40547  20605377.4064   20605383.1384
       877.6964
  -2001827.42343  -1149905.75845  24975374.1944   24975381.0984
      3082.4504
    749134.18845    602314.05445  23829078.3654   23829084.0974
     -1046.4554
  -5682398.88347  -4303954.27646  21738025.9164   21738031.7654
      1891.7394
   5089806.48147   3933248.20646  21520288.6644   21520293.9394
     -2771.3734
  -3389850.35046   -424942.56346  21826646.4354   21826652.0504
       672.8444
  -7266015.976 5  -5659185.496 5  22908062.114    22908056.397
      2782.012
 96  6  9  0 19  0.0000000  0  8G16G17G21G22G23G 6G26G28
    327148.49442    303112.54945  23877124.0234   23877133.1434
     -3450.9914
  -3162970.15948  -2422124.56447  20600399.9344   20600405.9244
       866.1824
  -2094231.72743  -1221908.97745  24957789.3334   24957795.3004
      3077.9004
    780799.40145    626988.21945  23835104.4544   23835111.6284
     -1064.5634
  -5738974.92947  -4348039.48946  21727259.9294   21727265.8604
      1880.1054
   5173171.88547   3998208.24346  21536152.4154   21536158.0304
     -2786.4074
  -3409731.52846   -440434.36846  21822862.1894   21822867.4644
       652.6624
  -7349313.923 5  -5724092.963 5  22892211.384    22892205.986
      2771.164
 96  6  9  0 19 30.0000000  0  8G16G17G21G22G23G 6G26G28
    430745.72442    383837.59244  23896838.5624   23896846.7334
     -3455.7924
  -3188782.91248  -2442238.38947  20595487.6614   20595493.5344
       854.3794
  -2186503.01444  -1293808.65445  24940232.6754   24940243.1314
      3073.3154
    812996.28345    652076.66945  23841230.3614   23841236.2924
     -1082.1024
  -5795209.52147  -4391858.63546  21716558.8914   21716564.5534
      1868.6904
   5256990.08847   4063521.11146  21552101.9514   21552107.8474
     -2801.7664
  -3429008.87646   -455455.67346  21819195.0134   21819200.0544
       632.1494
  -7432284.332 5  -5788745.222 5  22876422.604    22876417.416
      2759.847
 96  6  9  0 20  0.0000000  0  8G16G17G21G22G23G 6G26G28
    534470.66142    464662.13844  23916576.7614   23916581.6734
     -3459.7844
  -3214260.81448  -2462091.29947  20590639.3924   20590645.1484
       843.8674
  -2278663.03343  -1365621.60745  24922693.3464   24922700.0984
      3070.2754
    845702.94345    677562.39745  23847456.1394   23847461.3794
     -1098.7934
  -5851120.76847  -4435425.81746  21705918.8324   21705924.7404
      1858.2744
   5341254.97647   4129182.03746  21568137.7714   21568143.1284
     -2816.3734
  -3447684.18346   -470007.84546  21815640.7884   21815645.6184
       612.5154
  -7514926.277 5  -5853141.553 5  22860696.032    22860691.474
      2749.126
 96  6  9  0 20 30.0000000  0  8G16G17G21G22G23G 6G26G28
    638322.63541    545585.74643  23936338.0894   23936349.7294
     -3464.2554
  -3239432.74148  -2481705.78147  20585848.8844   20585854.6864
       833.7624
  -2370732.51043  -1437363.96645  24905172.9904   24905180.1054
      3067.1544
    878906.30445    703435.08245  23853774.5874   23853781.3864
     -1115.1724
  -5906717.78147  -4478748.13646  21695339.1164   21695344.9774
      1847.5964
   5425960.25847   4195186.12946  21584256.3674   21584262.2984
     -2831.2064
  -3465773.06047   -484103.06046  21812199.0004   21812204.2644
       592.7644
  -7597244.273 5  -5917285.419 5  22845031.289    22845026.474
      2738.193
 96  6  9  0 21  0.0000000  0  8G16G17G21G22G23G 6G26G28
                                  23956126.5654
     -3467.9704
  -3264303.17148  -2501085.33447  20581116.4744   20581122.3004
       823.9794
  -2462707.32443  -1509032.49045  24887670.4404   24887680.3924
      3064.0744
    912597.50945    729687.99645  23860184.9094   23860191.6614
     -1131.1414
  -5961984.70547  -4521813.24546  21684822.2244   21684828.0494
      1836.4524
   5511107.76046   4261534.80746  21600459.1384   21600464.8704
     -2845.5814
  -3483263.02346   -497731.58446  21808870.2644   21808876.1724
       572.9274
  -7679232.721 5  -5981172.487 5  22829429.698    22829425.686
      2727.379
 96  6  9  0 21 30.0000000  0  8G16G17G21G22G23G 6G26G28
                                  23975930.0884
     -3471.7004
  -3288868.43048  -2520227.09047  20576442.1994   20576448.0134
       813.6584
  -2554581.41244  -1580622.56045  24870188.4524   24870195.9314
      3060.9934
    946771.38645    756316.95145  23866687.8304   23866693.1524
     -1147.0234
  -6016898.18047  -4564602.94946  21674372.4654   21674378.4794
      1824.5144
   5596690.34247   4328222.51546  21616745.5424   21616751.1224
     -2859.7814
  -3500144.70446   -510886.13646  21805657.2334   21805662.6144
       552.5414
  -7760889.123 5  -6044800.851 5  22813890.896    22813885.420
      2716.472
 96  6  9  0 22  0.0000000  0  7G17G21G22G23G 6G26G28
  -3313107.82848  -2539114.92547  20571829.2934   20571834.7904
       802.4084
  -2646349.15544  -1652129.78145  24852726.4494   24852731.5954
      3056.8174
    981427.98245    783322.08645  23873282.7074   23873290.0814
     -1163.2684
  -6071437.90747  -4607101.41746  21663993.8184   21663999.7144
      1811.3834
   5682700.68546   4395243.52846  21633112.6344   21633118.3084
     -2874.1204
  -3516405.62147   -523556.97746  21802563.5584   21802568.5754
       531.6924
  -7842210.602 5  -6108168.230 5  22798416.154    22798411.061
      2705.029
 96  6  9  0 22 30.0000000  0  7G17G21G22G23G 6G26G28
  -3336996.61448  -2557729.56547  20567283.1404   20567289.0134
       790.5994
  -2737971.64545  -1723523.85745  24835290.9904   24835299.0674
      3051.9614
   1016581.03345    810714.04945  23879971.6184   23879976.9994
     -1179.7004
  -6125566.31847  -4649279.37646  21653693.6804   21653699.2484
      1797.6104
   5769147.87747   4462604.95346  21649563.7684   21649569.4654
     -2888.5484
  -3532033.63146   -535734.61246  21799589.2614   21799594.1264
       510.4724
  -7923178.516 5  -6171260.097 5  22783008.390    22783003.925
      2693.317
 96  6  9  0 23  0.0000000  0  7G17G21G22G23G 6G26G28
  -3360542.19048  -2576076.76347  20562802.9664   20562808.6984
       778.9234
  -2829472.79445  -1794823.33745  24817877.4844   24817881.2124
      3048.0984
   1052211.11745    838477.72345  23886752.1064   23886757.4744
     -1195.7814
  -6179298.95747  -4691148.94146  21643468.7794   21643474.5824
      1784.6534
   5856008.84646   4530288.80946  21666091.7944   21666097.5504
     -2902.2484
  -3547037.91847   -547426.25946  21796734.1004   21796739.0004
       489.8054
  -8003809.464 5  -6234089.390 5  22767664.633    22767659.844
      2682.014
 96  6  9  0 23 30.0000000  0  7G17G21G22G23G 6G26G28
  -3383727.36848  -2594143.12747  20558390.8904   20558396.8684
       766.6304
  -2920858.44544  -1866032.78945  24800488.1184   24800493.3704
      3044.2344
   1088331.46445    866623.44645  23893626.9944   23893632.1404
     -1212.4244
  -6232643.42347  -4732716.03546  21633317.2974   21633323.2524
      1771.5084
   5943284.68447   4598295.93146  21682700.3094   21682705.5604
     -2916.3594
  -3561420.98046   -558633.82046  21793997.1104   21794002.4314
       468.9174
  -8084096.703 5  -6296650.858 5  22752386.270    22752381.732
      2670.249
 96  6  9  0 24  0.0000000  0  7G17G21G22G23G 6G26G28
  -3406567.86348  -2611940.91247  20554044.4024   20554050.1584
       755.6304
  -3012141.55843  -1937162.38345  24783115.4364   24783122.7864
      3040.6914
   1124938.54445    895148.40545  23900592.5854   23900598.0014
     -1228.7434
  -6285615.34347  -4773992.83746  21623237.4344   21623243.1554
      1759.3924
   6030966.69746   4666619.56346  21699385.7454   21699391.5714
     -2929.6634
  -3575201.26146   -569371.68946  21791375.2384   21791380.4434
       449.2264
  -8164044.868 5  -6358948.120 5  22737173.286    22737167.626
      2659.057
 96  6  9  0 24 30.0000000  0  7G17G21G22G23G 6G26G28
  -3429069.29048  -2629474.48747  20549762.7984   20549768.7294
       744.2834
  -3103309.68243  -2008202.38945  24765766.5514   24765772.3304
      3037.1424
   1162055.10745    924070.39945  23907656.8754   23907661.4004
     -1245.6904
  -6338215.47547  -4814979.93846  21613228.3224   21613234.1604
      1747.2854
   6119067.47446   4735269.49146  21716150.3714   21716156.0094
     -2943.7714
  -3588375.90847   -579637.64146  21788868.2714   21788873.4994
       428.7444
  -8243640.276 5  -6420970.494 5  22722026.479    22722021.697
      2647.173
 96  6  9  0 25  0.0000000  0  7G17G21G22G23G 6G26G28
  -3451224.70448  -2646738.44647  20545546.5664   20545552.5564
       732.7574
  -3194366.52644  -2079155.70745  24748439.7854   24748448.5884
      3033.2244
   1199671.03145    953381.49045  23914813.2864   23914818.6674
     -1262.1834
  -6390461.14647  -4855690.81946  21603285.6734   21603291.4994
      1735.8434
   6207584.43346   4804243.70546  21732994.6344   21733000.5424
     -2957.2794
  -3600937.50146   -589425.87646  21786477.3244   21786482.7164
       408.8654
  -8322879.568 5  -6482715.367 5  22706947.393    22706942.586
      2635.430
 96  6  9  0 25 30.0000000  0  8G16G17G21G22G23G 6G26G28
     59396.69451                  24134999.3994
     -3495.1904
  -3473039.91348  -2663737.30347  20541395.5984   20541401.4714
       721.8504
  -3285293.84844  -2150008.05745  24731136.7624   24731142.2014
      3028.6064
   1237784.99045    983080.61045  23922067.5404   23922071.0804
     -1278.5414
  -6442361.71947  -4896132.80146  21593408.7224   21593414.6664
      1724.2544
   6296506.26046   4873533.42946  21749915.9224   21749921.6424
     -2970.7734
  -3612899.86947   -598747.19346  21784201.3144   21784206.1444
       388.7244
  -8401764.993 5  -6544184.506 5  22691936.048    22691931.388
      2623.675
 96  6  9  0 26  0.0000000  0  8G16G17G21G22G23G 6G26G28
     38479.03551                  24154965.2414
     -3499.1354
  -3494529.86748  -2680482.71847  20537306.0854   20537311.9814
       711.0434
  -3376071.25344  -2220743.66545  24713862.3684   24713870.4924
      3023.3154
   1276383.94345   1013157.70245  23929411.9624   23929418.2454
     -1294.4694
  -6493919.06747  -4936307.34346  21583598.3434   21583604.1334
      1713.0794
   6385836.88246   4943141.66946  21766914.9294   21766920.6024
     -2984.4684
  -3624255.97147   -607596.10046  21782039.8414   21782044.8694
       368.5574
  -8480294.267 5  -6605376.126 5  22676992.749    22676987.358
      2611.791
 96  6  9  0 26 30.0000000  0  8G16G17G21G22G23G 6G26G28
     59529.18151                  24174955.9904
     -3503.0724
  -3515695.45548  -2696975.38347  20533278.5614   20533284.2464
       699.7904
  -3466696.23444  -2291360.38545  24696618.7164   24696623.5804
      3018.2414
   1315452.78444   1043600.93745  23936845.5494   23936852.2184
     -1310.0504
  -6545140.76547  -4976220.34046  21573851.1304   21573856.9214
      1701.6504
   6475586.80046   5013076.64346  21783994.0164   21783999.6194
     -2999.0064
  -3635007.64247   -615974.01946  21779993.6974   21779998.9254
       348.1154
  -8558463.943 5  -6666287.519 5  22662117.187    22662112.705
      2599.406
 96  6  9  0 27  0.0000000  0  8G16G17G21G22G23G 6G26G28
     80605.96251                  24194960.0204
     -3506.0014
  -3536530.20548  -2713210.25747  20529313.7124   20529319.4564
       689.0874
  -3557174.18544  -2361862.61545  24679399.6784   24679405.3754
      3013.5774
   1354975.17445   1074397.56845  23944365.9484   23944373.3334
     -1325.0514
  -6596028.61347  -5015873.18646  21564167.8774   21564173.7274
      1690.6394
   6565758.94046   5083340.60946  21801153.4184   21801159.0334
     -3012.7474
  -3645165.67747   -623889.35446  21778061.4784   21778066.6604
       329.0404
  -8636274.492 5  -6726919.093 5  22647310.480    22647305.978
      2587.780
 96  6  9  0 27 30.0000000  0  8G16G17G21G22G23G 6G26G28
     17538.17451                  24214984.2094
     -3508.7344
  -3557040.29848  -2729192.14447  20525409.9264   20525415.7054
       678.0584
  -3647514.78044  -2432257.80445  24662208.8664   24662215.2194
      3009.1534
   1394957.84445   1105552.91245  23951976.3164   23951982.1544
     -1340.4224
  -6646571.91247  -5055257.53146  21554549.6784   21554555.5974
      1678.7184
   6656359.59046   5153938.49046  21818393.7094   21818399.2194
     -3027.3494
  -3654739.38447   -631349.36546  21776239.7404   21776244.5344
       308.9914
  -8713726.376 5  -6787271.170 5  22632571.703    22632566.791
      2575.542
 96  6  9  0 28  0.0000000  0  8G16G17G21G22G23G 6G26G28
     80722.43951                  24235018.0604
     -3511.1554
  -3577218.85148  -2744915.68647  20521570.3704   20521576.2084
       666.6244
  -3737744.36644  -2502566.43145  24645038.0954   24645047.5324
      3005.6804
   1435389.79445   1137058.27245  23959669.9414   23959676.8344
     -1355.7544
  -6696761.61447  -5094366.36546  21544998.5264   21545004.3054
      1666.7104
   6747384.13546   5224866.75246  21835715.6464   21835721.3554
     -3041.4464
  -3663721.26247   -638348.21946  21774529.9654   21774534.7954
       289.1144
  -8790816.840 5  -6847341.651 5  22617902.036    22617897.231
      2563.245
 96  6  9  0 28 30.0000000  0  7G17G21G22G23G 6G26G28
  -3597044.32348  -2760364.10747  20517798.0844   20517803.7934
       655.1004
  -3827868.76845  -2572793.12545  24627889.7274   24627898.6714
      3002.5904
   1476294.15945   1168931.80945  23967453.9704   23967460.0774
     -1371.2284
  -6746578.49847  -5133184.70446  21535518.8954   21535524.5454
      1654.4304
   6838832.27146   5296125.00546  21853116.6414   21853122.4784
     -3054.7954
  -3672088.92447   -644868.47346  21772937.9774   21772943.0534
       268.7574
  -8867530.299 5  -6907118.320 5  22603304.315    22603298.946
      2551.069
 96  6  9  0 29  0.0000000  0  7G17G21G22G23G 6G26G28
  -3616519.94448  -2775539.91047  20514091.9234   20514097.7374
       643.6864
  -3917887.98845  -2642937.90445  24610758.9074   24610764.0174
      2999.0404
   1517674.64845   1201176.28545  23975328.2864   23975336.3624
     -1387.2644
  -6796022.60947  -5171712.56046  21526109.9814   21526115.7724
      1642.1344
   6930664.91546   5367682.88046  21870592.7504   21870598.2944
     -3067.0154
  -3679834.95146   -650904.31646  21771463.2214   21771468.3914
       247.8284
  -8943876.488 5  -6966608.841 5  22588775.405    22588771.391
      2538.943
 96  6  9  0 29 30.0000000  0  7G17G21G22G23G 6G26G28
  -3635651.51148  -2790447.62647  20510451.3274   20510457.1884
       632.1584
  -4007793.63345  -2712994.15945  24593650.6974   24593658.7624
      2995.0664
   1559549.19245   1233805.75945  23983295.7974   23983302.1744
     -1403.9504
  -6845089.88947  -5209946.77446  21516772.9764   21516778.6854
      1629.4844
   7022872.04646   5439532.58046  21888138.1434   21888143.8644
     -3079.5174
  -3686928.21946   -656431.53746  21770113.1064   21770118.5104
       225.4244
  -9019846.495 5  -7025806.238 5  22574319.567    22574314.240
      2526.162
 96  6  9  0 30  0.0000000  0  8G16G17G21G22G23G 6G26G28
                                  24315278.0334
     -3518.6824
  -3654451.96848  -2805097.32247  20506874.0234   20506879.8374
       621.5194
  -4097582.88845  -2782959.72145  24576564.2964   24576571.5764
      2990.9974
   1601913.85045   1266817.14945  23991359.3164   23991363.6074
     -1420.2084
  -6893793.61947  -5247897.70946  21507505.1934   21507511.0654
      1617.7714
   7115433.76846   5511658.57246  21905752.7154   21905757.9554
     -3091.1314
  -3693363.84647   -661446.29946  21768889.1044   21768894.7424
       203.8214
  -9095444.671 5  -7084713.860 5  22559932.712    22559928.240
      2513.951
 96  6  9  0 30 30.0000000  0  7G17G21G22G23G 6G26G28
  -3672933.14848  -2819498.22947  20503356.5264   20503362.2004
       610.4414
  -4187235.12644  -2852818.54745  24559502.0374   24559510.5714
      2985.7444
   1644768.34945   1300210.32045  23999514.3394   23999520.2354
     -1436.7304
  -6942147.44147  -5285575.99146  21498303.3294   21498309.0844
      1605.6104
   7208356.27146   5584065.68846  21923434.9244   21923440.3164
     -3103.6994
  -3699151.20747   -665955.92046  21767788.5894   21767793.5124
       182.1404
  -9170672.548 5  -7143332.988 5  22545617.767    22545613.033
      2501.191
 96  6  9  0 31  0.0000000  0  7G17G21G22G23G 6G26G28
  -3691089.75348  -2833646.22747  20499901.8364   20499907.7674
       600.0084
  -4276737.61445  -2922560.69245  24542472.3624   24542479.7594
      2981.2374
   1688105.56345   1333979.51945  24007760.1104   24007766.6984
     -1452.2334
  -6990142.08547  -5322974.39947  21489170.6664   21489176.0934
      1594.0504
   7301651.97346   5656763.63046  21941189.4604   21941195.4274
     -3116.1624
  -3704307.45047   -669973.75446  21766807.4334   21766812.5334
       161.8084
  -9245524.234 5  -7201658.966 5  22531373.913    22531368.970
      2488.952
 96  6  9  0 31 30.0000000  0  7G17G21G22G23G 6G26G28
  -3708927.70648  -2847545.93147  20496507.4634   20496513.0784
       588.8484
  -4366109.31544  -2992200.84245  24525463.5574   24525471.9034
      2976.5824
   1731899.66445   1368104.73745  24016094.7054   24016099.7804
     -1467.4234
  -7037777.87647  -5360093.17646  21480105.0634   21480111.0074
      1581.3424
   7395337.29346   5729765.14546  21959017.2884   21959022.8334
     -3129.7924
  -3708862.60946   -673523.22446  21765939.6174   21765945.1734
       141.7954
  -9320004.218 5  -7259695.295 5  22517200.429    22517196.293
      2476.153
 96  6  9  0 32  0.0000000  0  7G17G21G22G23G 6G26G28
  -3726424.06148  -2861179.44847  20493177.8244   20493183.6034
       576.9654
  -4455339.80444  -3061731.01345  24508482.8984   24508491.5494
      2971.4564
   1776135.66645   1402574.32045  24024510.4044   24024516.2544
     -1482.2994
  -7085030.32147  -5396913.23646  21471113.7374   21471119.6094
      1568.1714
   7489433.09246   5803086.50146  21976922.4864   21976927.7964
     -3143.9644
  -3712831.53747   -676615.87846  21765184.8204   21765189.5444
       122.1524
  -9394100.274 5  -7317432.471 5  22503100.391    22503096.301
      2462.927
 96  6  9  0 32 30.0000000  0  7G17G21G22G23G 6G26G28
  -3743566.79048  -2874537.42047  20489915.9274   20489921.9524
       565.3544
  -4544424.22044  -3131147.33545  24491531.4764   24491537.7604
      2967.1244
   1820812.46545   1437387.36445  24033013.4274   24033019.9324
     -1496.5844
  -7131888.19447  -5433425.85146  21462196.7394   21462202.6934
      1555.1934
   7583947.73946   5876734.25346  21994907.7834   21994913.3754
     -3157.3194
  -3716217.26847   -679254.10446  21764540.2314   21764545.6004
       103.1864
  -9467804.785 5  -7374864.561 6  22489075.583    22489070.360
      2450.270
 96  6  9  0 33  0.0000000  0  7G17G21G22G23G 6G26G28
  -3760349.44348  -2887614.81547  20486722.4584   20486728.0734
       553.5924
  -4633380.66644  -3200464.00745  24474604.0414   24474611.6614
      2963.4824
   1865930.30545   1472544.13345  24041599.1704   24041605.2664
     -1511.0974
  -7178346.54647  -5469627.14547  21453355.9584   21453361.8074
      1542.2244
   7678860.33146   5950692.08546  22012969.7094   22012975.0544
     -3170.1564
  -3719022.02247   -681439.62146  21764006.4044   21764011.4684
        83.8234
  -9541122.172 5  -7431994.981 5  22475122.936    22475118.881
      2437.688
 96  6  9  0 33 30.0000000  0  7G17G21G22G23G 6G26G28
  -3776770.40148  -2900410.36447  20483597.2164   20483603.2064
       541.3724
  -4722216.22645  -3269686.42845  24457699.3704   24457705.9934
      2958.9704
   1911487.81444   1508043.38945  24050266.6034   24050272.5694
     -1526.0324
  -7224410.38347  -5505521.03147  21444590.4604   21444596.2984
      1529.1234
   7774160.02846   6024951.56346  22031103.3844   22031109.0924
     -3182.9164
  -3721227.72447   -683158.34046  21763587.4534   21763592.7164
        63.2414
  -9614051.887 5  -7488823.324 5  22461245.317    22461240.461
      2424.470
 96  6  9  0 34  0.0000000  0  8G16G17G21G22G23G 6G26G28
                                  24476358.2614
     -3371.6974
  -3792825.83248  -2912921.08647  20480541.9794   20480547.8514
       529.2984
  -4810912.27144  -3338800.13545  24440821.0844   24440827.3794
      2954.2434
   1957502.73544   1543899.16645  24059023.3544   24059029.3334
     -1541.5294
  -7270104.43847  -5541126.76947  21435894.7944   21435900.6794
      1517.3344
   7869831.68946   6099500.89346  22049310.9074   22049316.5574
     -3194.9114
  -3722806.24547   -684388.33346  21763286.3454   21763291.5374
        42.1354
  -9686585.668 5  -7545343.157 5  22447441.827    22447438.113
      2411.281
 96  6  9  0 34 30.0000000  0  7G17G21G22G23G 6G26G28
  -3808522.79148  -2925152.48347  20477554.7814   20477560.7244
       517.5744
  -4899465.40644  -3407802.52845  24423969.7394   24423974.7794
      2949.7444
   2003986.94845   1580120.60145  24067869.5124   24067874.9634
     -1556.9484
  -7315443.50447  -5576455.89247  21427267.2534   21427272.8454
      1505.7954
   7965858.73546   6174327.13646  22067583.4314   22067589.2344
     -3206.5104
  -3723746.12747   -685120.71546  21763107.4634   21763112.7034
        20.9664
  -9758723.918 5  -7601554.776 6  22433715.481    22433710.208
      2398.267
 96  6  9  0 35  0.0000000  0  7G17G21G22G23G 6G26G28
  -3823867.60148  -2937109.48547  20474635.2104   20474640.9654
       505.7524
  -4987883.69845  -3476699.78845  24407143.4894   24407150.9444
      2945.0694
   2050929.55645   1616699.25345  24076804.6964   24076811.1904
     -1572.1244
  -7360440.19347  -5611518.24147  21418704.7194   21418710.6394
      1494.4524
   8062241.47946   6249430.53946  22085924.6704   22085930.1684
     -3218.6634
  -3724047.52647   -685355.56046  21763050.6784   21763055.5894
        -0.3984
  -9830463.841 6  -7657455.993 5  22420062.369    22420059.126
      2384.752
 96  6  9  0 35 30.0000000  0  7G17G21G22G23G 6G26G28
  -3838860.79648  -2948792.49247  20471781.8034   20471787.5354
       494.2014
  -5076146.48945  -3545475.96245  24390349.8484   24390356.9174
      2939.3834
   2098324.14945   1653630.06845  24085821.6624   24085828.7074
     -1587.4214
  -7405105.94247  -5646322.69747  21410204.8224   21410210.5894
      1483.5624
   8158993.60646   6324821.78146  22104335.5764   22104341.3084
     -3231.2064
  -3723717.66847   -685098.52746  21763112.9464   21763118.2324
       -21.3374
  -9901796.725 5  -7713040.042 5  22406488.829    22406484.424
      2371.017
 96  6  9  0 36  0.0000000  0  7G17G21G22G23G 6G26G28
  -3853526.54848  -2960220.35247  20468991.1614   20468997.0694
       483.5524
  -5164259.33344  -3614135.23945  24373580.9954   24373585.1804
      2934.9184
   2146166.52545   1690909.80445  24094926.7044   24094932.6944
     -1601.8844
  -7449455.86447  -5680881.06447  21401765.3224   21401771.0434
      1472.8964
   8256111.49746   6400498.02446  22122816.9724   22122822.9624
     -3243.3684
  -3722779.14646   -684367.19646  21763290.7034   21763296.2484
       -41.1034
  -9972732.329 6  -7768314.510 6  22392990.586    22392986.248
      2358.030
 96  6  9  0 36 30.0000000  0  7G17G21G22G23G 6G26G28
  -3867867.61548  -2971395.20747  20466262.0094   20466267.9294
       472.6454
  -5252230.33745  -3682683.99345  24356839.1104   24356844.1634
      2930.1474
   2194446.05345   1728530.20145  24104113.2074   24104119.1624
     -1616.3804
  -7493459.42747  -5715169.54147  21393391.7054   21393397.4604
      1461.0444
   8353614.28246   6476474.20046  22141370.7194   22141376.7564
     -3256.5764
  -3721239.60547   -683167.53846  21763584.5754   21763589.7914
       -61.3714
 -10043266.218 5  -7823275.954 6  22379568.202    22379563.425
      2344.456
 96  6  9  0 37  0.0000000  0  7G17G21G22G23G 6G26G28
  -3881878.50248  -2982312.78947  20463595.6644   20463601.5724
       461.1604
  -5340062.55045  -3751124.57245  24340126.3754   24340133.9244
      2925.0394
   2243157.21945   1766486.93345  24113382.2664   24113385.6894
     -1631.2224
  -7537112.52347  -5749184.92847  21385085.2454   21385090.9654
      1448.8574
   8451509.62946   6552756.24346  22159999.5714   22160005.2454
     -3269.8814
  -3719091.40047   -681493.60246  21763994.0694   21763998.7234
       -82.0684
 -10113394.459 5  -7877921.334 6  22366223.715    22366218.543
      2330.587
 96  6  9  0 37 30.0000000  0  7G17G21G22G23G 6G26G28
  -3895541.64648  -2992959.38747  20460996.3194   20461001.9224
       449.7634
  -5427734.87545  -3819440.62945  24323444.0764   24323449.0464
      2919.9364
   2292312.80145   1804789.95445  24122737.6704   24122742.9804
     -1645.8434
  -7580393.90447  -5782910.66247  21376848.9894   21376854.8504
      1436.4064
   8549798.87246   6629345.23746  22178704.2244   22178709.6054
     -3282.6974
  -3716311.25247   -679327.23846  21764522.8664   21764527.6024
      -103.5144
 -10183104.982 5  -7932241.192 6  22352957.888    22352953.028
      2316.724
 96  6  9  0 38  0.0000000  0  7G17G21G22G23G 6G26G28
  -3908855.94648  -3003334.19347  20458462.5434   20458468.3104
       437.5874
  -5515261.37645  -3887643.02445  24306788.3564   24306793.0924
      2914.9444
      8291.04355   1843428.73345  24132173.2034   24132176.9434
     -1659.8264
  -7623290.33947  -5816336.47047  21368685.8604   21368691.7574
      1423.2584
   8648468.20246   6706230.38446  22197479.8314   22197485.3994
     -3295.2914
  -3712875.22747   -676649.83346  21765176.1824   21765181.3754
      -125.5914
 -10252395.555 5  -7986233.840 6  22339772.547    22339767.587
      2302.525
 96  6  9  0 38 30.0000000  0  7G17G21G22G23G 6G26G28
  -3921814.68948  -3013431.91047  20455996.4564   20456002.2944
       425.6434
  -5602646.79644  -3955735.51845  24290157.2954   24290162.5824
      2910.1354
     38354.40155   1882378.62745  24141685.8154   24141693.1184
     -1673.1304
  -7665809.75447  -5849468.46747  21360594.6464   21360600.5424
      1410.9344
   8747493.55446   6783392.95746  22216324.3324   22216329.9354
     -3306.8314
  -3708796.21147   -673471.36846  21765951.2764   21765956.3984
      -146.9484
 -10321275.844 5  -8039906.785 6  22326665.451    22326659.896
      2288.880
 96  6  9  0 39  0.0000000  0  7G17G21G22G23G 6G26G28
  -3934401.37348  -3023239.71547  20453601.2704   20453607.2834
       413.0524
  -5689883.09645  -4023711.72345  24273558.4244   24273565.9624
      2905.1504
     88740.77345   1921640.60245  24151272.1484   24151277.9274
     -1686.4704
  -7707964.28247  -5882316.13647  21352572.8934   21352578.7074
      1398.7574
   8846860.17746   6860821.45746  22235232.5694   22235238.3014
     -3318.0164
  -3704083.37147   -669799.02346  21766849.1934   21766854.5974
      -167.6124
 -10389742.220 5  -8093257.169 5  22313636.048    22313631.409
      2275.055
 96  6  9  0 39 30.0000000  0  7G17G21G22G23G 6G26G28
  -3946610.16048  -3032753.04547  20451277.6114   20451283.5664
       400.9044
  -5776971.75245  -4091572.97845  24256984.9524   24256993.1114
      2900.7374
    139529.34245   1961216.14845  24160938.6444   24160943.8614
     -1699.5364
  -7749746.08947  -5914873.37747  21344622.2564   21344628.2224
      1386.6104
   8946560.84646   6938510.25846  22254204.8964   22254210.3124
     -3328.7984
  -3698753.65447   -665645.98446  21767863.0334   21767868.5194
      -187.6704
 -10457788.748 5  -8146280.435 6  22300688.123    22300682.399
      2261.276
 96  6  9  0 40  0.0000000  0  7G17G21G22G23G 6G26G28
  -3958453.38348  -3041981.53147  20449023.7324   20449029.5584
       388.7734
  -5863928.84845  -4159331.66745  24240437.4584   24240443.1674
      2896.4474
    190715.15045   2001101.15545  24170678.1274   24170685.3124
     -1712.8154
  -7791160.86547  -5947144.61847  21336740.8154   21336746.5944
      1374.4714
   9046587.40546   7016453.00046  22273240.0844   22273245.5234
     -3339.4264
  -3692831.96447   -661031.68146  21768990.3524   21768995.1704
      -206.8864
 -10525419.102 5  -8198979.381 6  22287817.452    22287812.313
      2247.522
 96  6  9  0 40 30.0000000  0  7G17G21G22G23G 6G26G28
  -3969940.16248  -3050932.26047  20446838.2454   20446844.1654
       377.1224
  -5950762.08545  -4226993.87945  24223913.9554   24223921.0114
      2892.5774
    242309.34645   2041304.39845  24180497.3634   24180503.4934
     -1726.8744
  -7832210.05448  -5979130.98747  21328929.9554   21328935.8404
      1362.1594
   9146932.53646   7094643.97546  22292335.2074   22292341.1614
     -3350.1804
  -3686333.91347   -655968.26246  21770226.8764   21770231.9524
      -226.4114
 -10592635.924 5  -8251356.122 6  22275026.691    22275022.008
      2233.588
 96  6  9  0 41  0.0000000  0  7G17G21G22G23G 6G26G28
  -3981073.64748  -3059607.70347  20444720.1364   20444726.0794
       365.5984
  -6037470.27245  -4294558.61045  24207413.9334   24207420.0874
      2888.3894
    294341.68644   2081849.06345  24190395.9004   24190401.8204
     -1741.6384
  -7872882.55647  -6010823.82747  21321189.9214   21321195.6654
      1349.6014
   9247605.68746   7173090.55546  22311492.4104   22311497.8494
     -3361.1114
  -3679233.59447   -650435.54146  21771577.9534   21771582.8294
      -246.6424
 -10659423.032 5  -8303397.985 6  22262317.498    22262312.716
      2219.237
 96  6  9  0 41 30.0000000  0  7G17G21G22G23G 6G26G28
  -3991887.83548  -3068034.34247  20442661.7094   20442667.5824
       355.1924
  -6124066.49944  -4362036.15345  24190933.0054   24190939.6404
      2884.4074
    346805.49445   2122729.81745  24200381.3484   24200389.0144
     -1756.2114
  -7913192.77647  -6042234.37747  21313519.0464   21313524.9424
      1337.5774
   9348597.47146   7251785.41946  22330710.1194   22330715.9924
     -3371.9964
  -3671526.90447   -644430.32446  21773044.4164   21773050.3594
      -267.3944
 -10725789.804 5  -8355112.357 6  22249688.643    22249683.723
      2204.981
 96  6  9  0 42  0.0000000  0  8G17G21G22G23G 6G 3G26G28
  -4002397.38948  -3076223.60047  20440661.7784   20440667.6044
       344.8174
  -6210546.07244  -4429422.74445  24174478.1264   24174483.8944
      2880.2024
    399698.59144   2163945.23945  24210445.7114   24210450.7984
     -1770.5854
  -7953150.27347  -6073370.07347  21305915.3474   21305921.3144
      1325.6844
   9449912.12146   7330731.87646  22349990.6764   22349995.9394
     -3382.9274
    -54470.18253                  24371592.6704
      3201.8674
  -3663202.59147   -637943.82846  21774627.8824   21774633.2744
      -288.2714
 -10791737.029 5  -8406499.782 6  22237139.146    22237134.184
      2190.830
 96  6  9  0 42 30.0000000  0  8G17G21G22G23G 6G 3G26G28
  -4012599.46948  -3084173.27347  20438720.5504   20438726.3294
       334.6254
  -6296893.70145  -4496706.53545  24158046.8564   24158054.0184
      2875.6364
    453020.09445   2205494.47745  24220593.3914   24220598.9484
     -1784.6714
  -7992757.21347  -6104232.60947  21298378.2604   21298384.0864
      1314.2874
   9551559.47146   7409937.57346  22369333.1964   22369338.9754
     -3394.2264
   -150422.81842                  24353331.1234
      3194.2334
  -3654250.55147   -630968.21846  21776332.2084   21776337.4004
      -309.0774
 -10857257.583 6  -8457554.761 6  22224670.747    22224666.317
      2176.568
 96  6  9  0 43  0.0000000  0  8G17G21G22G23G 6G 3G26G28
  -4022476.54848  -3091869.69347  20436840.6544   20436846.5854
       323.4314
  -6383084.14145  -4563867.91145  24141645.9354   24141654.5624
      2870.0964
    506766.58945   2247374.77145  24230820.6504   24230825.5974
     -1798.6264
  -8032015.20848  -6134823.24147  21290908.2184   21290914.0324
      1302.5724
   9653555.12946   7489414.66246  22388741.8804   22388747.8944
     -3405.8714
   -246123.88441         1.83053  24335119.6924   24335125.6124
      3185.5384
  -3644671.58247   -623504.07846  21778154.7514   21778159.9094
      -329.7374
 -10922335.970 5  -8508265.176 6  22212287.607    22212281.759
      2161.632
 96  6  9  0 43 30.0000000  0  8G17G21G22G23G 6G 3G26G28
  -4032015.71448  -3099302.81247  20435025.9704   20435031.8084
       312.1324
  -6469111.96445  -4630902.50845  24125275.5454   24125281.8984
      2864.7934
    560916.69345   2289569.66645  24241125.9174   24241132.4584
     -1811.5224
  -8070921.71848  -6165139.98647  21283504.4294   21283510.1494
      1290.9374
   9755898.33046   7569162.58146  22408217.4474   22408223.3904
     -3417.1494
   -341568.29941    -74370.23845  24316956.1884   24316966.7734
      3177.2004
  -3634482.69747   -615564.70246  21780093.6514   21780098.8324
      -349.7074
 -10986969.482 6  -8558628.954 6  22199987.462    22199982.876
      2147.071
 96  6  9  0 44  0.0000000  0  8G17G21G22G23G 6G 3G26G28
  -4041210.32248  -3106467.44447  20433276.3664   20433282.2274
       300.5024
  -6554984.72645  -4697816.25345  24108934.6984   24108941.3914
      2859.7244
    615439.07245   2332054.59045  24251501.0214   24251506.1904
     -1823.6334
  -8109481.44648  -6195186.52147  21276166.8754   21276172.7834
      1279.3464
   9858566.90946   7649164.04346  22427754.8184   22427760.2454
     -3427.7084
   -436779.93742   -148561.18044  24298839.5074   24298846.0124
      3170.0664
  -3623706.82147   -607167.90946  21782144.3614   21782149.4834
      -369.0094
 -11051173.946 6  -8608658.409 6  22187769.721    22187765.164
      2132.900
 96  6  9  0 44 30.0000000  0  8G17G21G22G23G 6G 3G26G28
  -4050040.89348  -3113348.40547  20431595.6524   20431601.6424
       288.1024
  -6640691.94444  -4764601.04245  24092622.8604   24092630.0814
      2854.1964
    670338.52344   2374833.39045  24261947.6034   24261954.4954
     -1836.2394
  -8147676.89648  -6224949.19347  21268898.4824   21268904.2614
      1267.0464
   9961561.93146   7729419.86146  22447354.2534   22447360.1494
     -3438.4974
   -531771.49142   -222580.46744  24280764.6044   24280768.9884
      3162.7494
  -3612340.23546   -598310.81846  21784306.5074   21784312.3104
      -388.7674
 -11114939.891 6  -8658346.140 6  22175635.535    22175631.089
      2118.273
 96  6  9  0 45  0.0000000  0  8G17G21G22G23G 6G 3G26G28
  -4058490.65648  -3119932.63847  20429987.8574   20429993.4724
       275.3174
  -6726229.98645  -4831254.01445  24076346.6654   24076352.9244
      2848.4194
    725623.16245   2417912.28345  24272468.1784   24272474.2394
     -1849.4914
  -8185496.07747  -6254418.67247  21261701.0884   21261707.0204
      1254.1524
  10064877.83846   7809925.73946  22467013.4514   22467018.9724
     -3449.2624
   -626532.99442   -296420.65745  24262731.4064   24262736.1424
      3154.8084
  -3600367.19847   -588981.20046  21786586.1944   21786590.6724
      -409.4834
 -11178263.437 6  -8707689.162 6  22163585.320    22163580.438
      2103.318
 96  6  9  0 45 30.0000000  0  8G17G21G22G23G 6G 3G26G28
  -4066555.98148  -3126217.30847  20428453.0274   20428458.8414
       262.5644
  -6811589.58645  -4897767.89545  24060102.2224   24060107.4974
      2842.4124
    781315.69445   2461309.02045  24283066.2744   24283074.7614
     -1863.2404
  -8222917.16348  -6283577.95247  21254580.7364   21254586.4104
      1240.7154
  10168527.35146   7890691.56546  22486738.3904   22486744.4034
     -3460.5574
   -721057.87843   -370076.31545  24244744.4544   24244746.9164
      3146.9144
  -3587760.86247   -579158.07846  21788984.6444   21788989.8374
      -430.9504
 -11241132.568 6  -8756678.074 6  22151621.906    22151617.098
      2088.070
 96  6  9  0 46  0.0000000  0  8G17G21G22G23G 6G 3G26G28
  -4074254.19248  -3132215.91247  20426988.1234   20426993.8674
       250.7604
  -6896785.43145  -4964154.23545  24043892.3574   24043897.9374
      2837.4434
    837411.58245   2505020.09345  24293740.5354   24293745.7864
     -1876.4224
  -8259942.59848  -6312428.92747  21247535.0554   21247540.7524
      1227.7724
  10272505.27546   7971713.27046  22506523.4904   22506529.1164
     -3471.2124
   -815352.71043   -443552.82445  24226798.7794   24226803.4214
      3139.4894
  -3574518.17447   -568839.10546  21791504.4504   21791509.6314
      -451.7564
 -11303553.433 6  -8805317.695 6  22139743.236    22139738.574
      2073.350
 96  6  9  0 46 30.0000000  0  8G17G21G22G23G 6G 3G26G28
  -4081601.63048  -3137941.18647  20425589.8434   20425595.5634
       238.8964
  -6981838.23145  -5030429.05645  24027705.6484   24027711.2754
      2832.5714
    893904.66945   2549040.62145  24304489.8704   24304495.6724
     -1889.8464
  -8296588.58548  -6340984.22947  21240560.9384   21240566.8114
      1215.2154
  10376798.54346   8052980.72146  22526370.9584   22526376.9014
     -3481.6874
   -909420.10443   -516852.09445  24208896.7514   24208901.1244
      3131.5404
  -3560652.43146   -558034.61946  21794142.4784   21794148.1164
      -472.8464
 -11365532.764 6  -8853613.266 6  22127949.265    22127944.801
      2058.414
 96  6  9  0 47  0.0000000  0  8G17G21G22G23G 6G 3G26G28
  -4088595.94148  -3143391.29447  20424258.9864   20424264.7774
       227.1974
  -7066743.79545  -5096589.16245  24011550.0454   24011556.1404
      2827.4984
    950795.17544   2593370.83645  24315315.0684   24315321.0584
     -1903.1084
  -8332862.74548  -6369249.79947  21233658.2704   21233664.0614
      1202.7734
  10481399.96346   8134488.28946  22546276.1014   22546281.6694
     -3492.0104
  -1003248.99543   -589965.43745  24191043.5244   24191050.0304
      3123.5374
  -3546155.89147   -546738.62446  21796901.5854   21796906.6964
      -493.6834
 -11427058.732 6  -8901555.555 6  22116241.299    22116236.279
      2043.024
 96  6  9  0 47 30.0000000  0  8G17G21G22G23G 6G 3G26G28
  -4095236.66248  -3148565.88347  20422994.8754   20423000.7834
       215.3694
  -7151500.37445  -5162633.20545  23995420.0944   23995426.5764
      2822.9674
   1008073.78044   2638003.45245  24326215.4264   24326220.5954
     -1915.3194
  -8368771.13848  -6397230.35647  21226825.1434   21226830.6644
      1191.1414
  10586306.66446   8216233.74146  22566238.7854   22566244.7404
     -3501.7454
  -1096837.81844   -662891.68645  24173232.9244   24173240.0864
      3115.5464
  -3531050.14447   -534967.89946  21799776.0964   21799781.1014
      -513.4554
 -11488124.053 6  -8949138.907 6  22104621.006    22104615.822
      2027.937
 96  6  9  0 48  0.0000000  0  8G17G21G22G23G 6G 3G26G28
  -4101506.51048  -3153451.47747  20421802.4914   20421808.4104
       202.4624
  -7236108.60545  -5228561.62645  23979318.6854   23979325.8354
      2817.2804
   1065721.07445   2682923.45245  24337186.6274   24337193.3444
     -1927.8974
  -8404327.40848  -6424936.53147  21220059.2484   21220064.8274
      1179.2104
  10691508.24246   8298208.94646  22586258.1184   22586263.6984
     -3511.7134
  -1190174.68445   -735621.72245  24155473.2424   24155480.1004
      3106.8864
  -3515344.86947   -522730.02646  21802764.1314   21802769.4064
      -533.5624
 -11548726.309 6  -8996361.419 6  22093088.554    22093084.020
      2012.065
 96  6  9  0 48 30.0000000  0  8G17G21G22G23G 6G 3G26G28
  -4107389.71848  -3158035.78947  20420682.7554   20420688.3824
       189.7754
  -7320542.32745  -5294354.07445  23963252.4534   23963258.5954
      2811.5824
   1123737.73043   2728131.18145  24348225.3954   24348230.4244
     -1939.8294
  -8439535.06948  -6452371.06847  21213359.4954   21213365.1574
      1167.7684
  10796998.63146   8380409.22846  22606332.4344   22606338.2494
     -3521.0374
  -1283258.25945   -808154.36745  24137761.2164   24137767.2184
      3098.6114
  -3499042.27647   -510026.69946  21805867.4464   21805872.6504
      -553.3534
 -11608857.095 6  -9043216.560 6  22081646.542    22081641.547
      1996.596
 96  6  9  0 49  0.0000000  0  8G17G21G22G23G 6G 3G26G28
  -4112886.51448  -3162319.00847  20419636.3494   20419642.2344
       176.8214
  -7404798.09945  -5360007.84145  23947219.7994   23947224.3594
      2805.5624
   1182113.18744   2773618.52545  24359334.6974   24359341.6844
     -1951.7724
  -8474383.13048  -6479525.39247  21206728.2044   21206734.1474
      1155.5764
  10902782.57046   8462838.23146  22626461.8424   22626467.9144
     -3531.1664
  -1376083.73345   -880485.87945  24120096.7514   24120103.4324
      3089.8944
  -3482144.60347   -496859.67146  21809082.7104   21809088.0914
      -572.8504
 -11668515.804 6  -9089703.851 6  22070293.435    22070288.948
      1980.885
 96  6  9  0 49 30.0000000  0  8G17G21G22G23G 6G 3G26G28
  -4117993.02848  -3166298.10547  20418664.8134   20418670.8144
       163.5454
  -7488874.09845  -5425521.52945  23931219.0124   23931226.0344
      2799.4434
   1240842.15144   2819381.29145  24370511.2194   24370518.6624
     -1963.5704
  -8508869.88248  -6506398.17747  21200165.7174   21200171.4854
      1143.3454
  11008872.67646   8545505.81346  22646650.3744   22646656.4464
     -3541.6034
  -1468651.16445   -952616.31745  24102479.1614   24102486.0654
      3081.1954
  -3464663.38947   -483237.95646  21812409.0324   21812414.4134
      -592.9034
 -11727709.174 6  -9135828.537 6  22059029.346    22059024.265
      1965.203
 96  6  9  0 50  0.0000000  0  8G17G21G22G23G 6G 3G26G28
  -4122713.77348  -3169976.61047  20417766.5824   20417772.4784
       150.7744
  -7572773.07845  -5490897.31745  23915254.3214   23915261.2494
      2793.3544
   1299923.42244   2865418.59845  24381752.4074   24381760.0974
     -1975.6814
  -8542988.21047  -6532983.87147  21193672.6564   21193678.5644
      1130.7844
  11115270.11146   8628412.84546  22666898.0204   22666903.4824
     -3551.9634
  -1560970.79444  -1024553.65045  24084911.1014   24084917.1264
      3073.1064
  -3446579.75947   -469146.80946  21815849.9594   21815855.2104
      -612.9854
 -11786436.954 6  -9181590.438 6  22047853.678    22047849.042
      1949.513
 96  6  9  0 50 30.0000000  0  8G17G21G22G23G 6G 3G26G28
  -4127045.95448  -3173352.33447  20416942.0444   20416947.7774
       138.2344
  -7656495.16145  -5556135.21045  23899322.0674   23899328.2094
      2788.4874
   1359380.44244   2911748.67145  24393068.9894   24393076.0224
     -1987.9534
  -8576720.30948  -6559268.62047  21187253.9074   21187259.6394
      1118.2634
  11221986.41546   8711568.39246  22687205.1554   22687211.5084
     -3562.2654
  -1653033.96245  -1096291.10645  24067393.4454   24067398.0514
      3064.5574
  -3427883.90147   -454578.61146  21819408.2964   21819413.2434
      -633.2854
 -11844683.990 6  -9226977.726 6  22036769.307    22036764.839
      1933.855
 96  6  9  0 51  0.0000000  0  8G17G21G22G23G 6G 3G26G28
  -4131005.18648  -3176437.45147  20416188.7194   20416194.5694
       125.6694
  -7740072.86145  -5621260.60645  23883418.0984   23883425.3774
      2783.2644
   1419214.47744   2958372.59845  24404452.5834   24404456.9084
     -2001.1214
  -8610082.61248  -6585265.21047  21180905.1854   21180911.0814
      1105.9914
  11329012.33846   8794965.15846  22707571.1864   22707577.0484
     -3572.8744
  -1744836.71845  -1167825.70745  24049923.1654   24049928.7914
      3055.6104
  -3408577.92447   -439534.98646  21823081.7254   21823086.6834
      -653.8384
 -11902457.422 6  -9271995.976 6  22025775.664    22025770.478
      1917.641
 96  6  9  0 51 30.0000000  0  8G17G21G22G23G 6G 3G26G28
  -4134587.81648  -3179229.11247  20415506.6774   20415512.4684
       113.2304
  -7823493.91545  -5686263.98145  23867543.5744   23867549.8104
      2778.2364
   1479449.53644   3005308.94445  24415916.1214   24415921.4314
     -2014.4974
  -8643083.67648  -6610980.31947  21174625.3804   21174631.3474
      1094.0084
  11436357.85746   8878610.99746  22727998.0744   22728003.7944
     -3583.4514
  -1836364.48745  -1239145.97845  24032506.0014   24032511.2524
      3045.9864
  -3388645.67447   -424003.36346  21826874.5014   21826879.5884
      -675.0424
 -11959739.144 6  -9316631.083 6  22014875.193    22014870.451
      1901.088
 96  6  9  0 52  0.0000000  0  8G17G21G22G23G 6G 3G26G28
  -4137821.19048  -3181748.62747  20414891.5384   20414897.5174
       102.1314
  -7906787.45745  -5751167.97645  23851693.0124   23851699.3424
      2774.3624
   1540074.41144   3052549.04945  24427452.4894   24427458.6324
     -2027.3114
  -8675736.02348  -6636423.69547  21168412.1524   21168417.9544
      1082.7014
  11543998.92146   8962487.08146  22748482.0524   22748488.0664
     -3592.7824
  -1927612.32444  -1310248.14945  24015141.2324   24015148.3004
      3036.8514
  -3368096.12947   -407990.72846  21830785.1224   21830789.9634
      -695.0184
 -12016536.885 6  -9360889.047 6  22004067.144    22004062.383
      1885.239
 96  6  9  0 52 30.0000000  0  8G17G21G22G23G 6G 3G26G28
  -4140698.92148  -3183991.01747  20414344.0964   20414349.9344
        90.6654
  -7989934.70445  -5815957.96345  23835869.7454   23835875.8874
      2769.5494
   1601104.71944   3100105.12945  24439067.4674   24439074.3594
     -2040.4664
  -8708021.13148  -6661580.91547  21162268.0054   21162273.6794
      1070.5174
  11651942.85246   9046599.20346  22769022.8654   22769028.6674
     -3602.5114
  -2018551.42945  -1381109.73545  23997837.3024   23997843.9724
      3026.6654
  -3346925.24747   -391493.93246  21834813.9834   21834818.9544
      -715.4654
 -12072833.942 6  -9404756.876 6  21993354.563    21993349.544
      1868.836
 96  6  9  0 53  0.0000000  0  8G17G21G22G23G 6G 3G26G28
  -4143245.87848  -3185975.65647  20413859.5394   20413865.2944
        78.9514
  -8072935.61445  -5880633.92445  23820076.2064   23820082.5364
      2763.6144
   1662515.60544   3147957.75145  24450752.2524   24450760.1064
     -2053.5834
  -8739948.43148  -6686459.32047  21156192.9204   21156198.7934
      1057.7934
  11760168.39346   9130930.73446  22789617.9994   22789624.0604
     -3612.7214
  -2109197.21645  -1451742.81245  23980588.2394   23980591.9794
      3016.2024
  -3325158.09447   -374532.50246  21838956.7414   21838961.8054
      -735.8714
 -12128650.691 6  -9448250.435 6  21982732.683    21982727.583
      1852.072
 96  6  9  0 53 30.0000000  0  8G17G21G22G23G 6G 3G26G28
  -4145433.47148  -3187680.27647  20413442.8114   20413448.7664
        66.7294
  -8155759.62545  -5945172.06745  23804315.3914   23804321.5104
      2757.9654
   1724305.36844   3196105.56945  24462512.0804   24462518.6214
     -2065.7914
  -8771494.88148  -6711040.95847  21150189.6344   21150195.5424
      1045.0104
  11868693.25446   9215495.52646  22810269.8064   22810275.3984
     -3622.2574
  -2199529.37244  -1522131.48545  23963397.3834   23963403.1744
      3005.8664
  -3302782.24047   -357096.78246  21843214.3214   21843219.6314
      -755.9294
 -12183968.200 6  -9491354.983 6  21972206.052    21972201.276
      1835.667
 96  6  9  0 54  0.0000000  0  8G17G21G22G23G 6G 3G26G28
  -4147248.96348  -3189094.94947  20413097.7544   20413103.6864
        53.8954
  -8238413.93945  -6009577.96445  23788587.3604   23788593.8184
      2752.0014
   1786459.53943   3244537.32745  24474336.5054   24474343.1044
     -2078.0724
  -8802648.54448  -6735316.52647  21144261.3864   21144267.2594
      1031.6824
  11977492.64146   9300274.23846  22830972.3764   22830978.7304
     -3631.2564
  -2289563.47345  -1592287.85745  23946265.3644   23946270.7094
      2996.1594
  -3279809.98247   -339196.30946  21847586.1354   21847590.8474
      -775.7754
 -12238794.680 6  -9534076.906 6  21961772.886    21961768.175
      1819.181
 96  6  9  0 54 30.0000000  0  8G17G21G22G23G 6G 3G26G28
  -4148664.88648  -3190198.26647  20412828.0454   20412833.8954
        40.6154
  -8320878.33545  -6073835.87945  23772893.7844   23772900.8884
      2745.8974
   1848977.46043   3293252.55045  24486234.9994   24486242.0684
     -2089.5614
  -8833400.24848  -6759278.88247  21138409.4774   21138415.1864
      1018.6234
  12086570.17046   9385269.65546  22851729.6524   22851735.1964
     -3640.3884
  -2379297.50345  -1662210.47145  23929189.6784   23929195.7744
      2986.3154
  -3256236.32547   -320827.23246  21852071.2264   21852076.5014
      -795.7654
 -12293121.119 6  -9576409.180 6  21951434.762    21951430.189
      1802.734
 96  6  9  0 55  0.0000000  0  8G17G21G22G23G 6G 3G26G28
  -4149671.82148  -3190982.88947  20412636.8064   20412642.5264
        26.7924
  -8403156.15945  -6137948.39645  23757236.7394   23757242.8814
      2739.6224
   1911839.41944   3342235.84445  24498197.6634   24498205.4354
     -2100.8924
  -8863762.60248  -6782937.84847  21132631.2584   21132637.0844
      1005.8414
  12195931.14046   9470485.93846  22872540.6094   22872546.5874
     -3650.0934
  -2468729.32645  -1731897.56745  23912170.5604   23912176.6784
      2976.0514
  -3232045.73247   -301977.41846  21856675.1804   21856680.1734
      -816.6944
 -12346945.053 6  -9618349.899 6  21941192.610    21941187.812
      1785.727
 96  6  9  0 55 30.0000000  0  8G17G21G22G23G 6G 3G26G28
  -4150271.32548  -3191450.03847  20412522.2974   20412528.2764
        13.5374
  -8485256.30745  -6201922.48545  23741613.8684   23741619.9514
      2733.9104
   1975033.19044   3391477.73345  24510224.6924   24510231.8074
     -2111.7814
  -8893747.79548  -6806302.92847  21126925.8264   21126931.3704
       993.2954
  12305572.87246   9555921.01246  22893404.9264   22893411.2324
     -3659.1594
  -2557864.10845  -1801353.19745  23895211.5064   23895216.2194
      2966.5224
  -3207232.20847   -282642.21346  21861396.8144   21861402.1954
      -837.3394
 -12400264.313 6  -9659897.375 6  21931045.993    21931041.627
      1769.100
 96  6  9  0 56  0.0000000  0  8G17G21G22G23G 6G 3G26G28
  -4150484.16848  -3191615.89547  20412481.9264   20412487.7874
         0.6974
  -8567175.62745  -6265755.65545  23726025.5234   23726031.9004
      2727.3074
   2038557.40943   3440977.03245  24522310.7454   24522316.7824
     -2123.0104
  -8923347.01348  -6829367.24147  21121292.9974   21121298.6354
       980.1374
  12415493.95146   9641573.76946  22914322.4034   22914327.8314
     -3668.9194
  -2646703.69845  -1870578.79745  23878303.3904   23878309.9894
      2956.0364
  -3181788.82547   -262816.19846  21866238.1964   21866243.3184
      -858.7884
 -12453077.297 6  -9701050.345 6  21920996.245    21920991.348
      1751.778
 96  6  9  0 56 30.0000000  0  8G17G21G22G23G 6G 3G26G28
  -4150329.12248  -3191495.07647  20412511.4834   20412517.0984
       -11.1324
  -8648905.23545  -6329441.06445  23710473.6414   23710479.2094
      2721.0924
   2102393.24544   3490719.20245  24534458.6844   24534463.4444
     -2132.9534
  -8952571.65448  -6852139.66947  21115731.7404   21115737.6484
       968.0594
  12525702.95846   9727450.85046  22935294.0134   22935299.6394
     -3678.4354
  -2735239.73045  -1939567.91245  23861455.8154   23861463.0834
      2946.2274
  -3155712.49947   -242496.98746  21871199.6694   21871204.9444
      -879.8864
 -12505383.198 6  -9741808.179 6  21911042.552    21911037.824
      1735.089
 96  6  9  0 57  0.0000000  0  8G17G21G22G23G 6G 3G26G28
  -4149796.86748  -3191080.33447  20412612.7054   20412618.6014
       -23.9904
  -8730420.54145  -6392959.42945  23694961.2274   23694968.0144
      2713.6344
   2166563.30145   3540721.81445  24546669.5914   24546677.0934
     -2144.8474
  -8981411.23048  -6874612.05947  21110243.9394   21110249.8474
       954.8524
  12636216.19346   9813565.02245  22956323.9204   22956329.7354
     -3688.7444
  -2823462.08045  -2008312.54145  23844666.8234   23844672.4734
      2935.6524
  -3128983.50047   -221669.21446  21876287.0644   21876292.3624
      -901.5054
 -12557163.122 6  -9782156.168 6  21901189.265    21901184.579
      1717.263
 96  6  9  0 57 30.0000000  0  8G17G21G22G23G 6G 3G26G28
  -4148892.86648  -3190375.92347  20412784.5224   20412790.5124
       -36.4444
  -8811729.80445  -6456317.23545  23679487.4444   23679493.4694
      2706.8304
   2231084.80544   3590998.29045  24558947.5594   24558950.3964
     -2156.6384
  -9009862.32148  -6896781.72647  21104829.4624   21104835.3934
       941.8874
  12747015.18446   9899901.84746  22977409.5624   22977415.2944
     -3697.7904
  -2911386.79245  -2076825.27145  23827936.6164   23827942.8174
      2925.9064
  -3101632.12047   -200356.43946  21881491.9684   21881496.6574
      -922.0944
 -12608423.984 6  -9822099.686 6  21891434.816    21891430.168
      1700.037
 96  6  9  0 58  0.0000000  0  8G17G21G22G23G 6G 3G26G28
  -4147622.52948  -3189386.04547  20413026.4324   20413032.2934
       -48.5914
  -8892851.46045  -6519528.83745  23664051.0734   23664058.0364
      2701.1654
   2295947.40544   3641540.55045  24571290.0304   24571297.5214
     -2167.8184
  -9037945.98048  -6918665.08447  21099485.6854   21099491.4764
       930.2924
  12858063.11845   9986432.64846  22998539.6514   22998544.9614
     -3705.5704
  -2999027.07245  -2145116.37445  23811259.3484   23811264.3544
      2916.5714
  -3073676.28347   -178572.68746  21886812.1664   21886817.1134
      -941.7324
 -12659181.243 6  -9861650.786 6  21881776.202    21881771.537
      1683.543
 96  6  9  0 58 30.0000000  0  8G17G21G22G23G 6G 3G26G28
  -4145949.02248  -3188082.01347  20413344.7174   20413350.5784
       -62.5634
  -8973781.45745  -6582591.15645  23648651.7524   23648657.5434
      2694.5064
   2361177.14345   3692368.86645  24583703.6944   24583709.3564
     -2180.6644
  -9065664.18848  -6940263.68047  21094210.7004   21094216.5384
       917.9194
  12969378.74845  10073172.05646  23019722.2244   23019728.2734
     -3715.0154
  -3086366.27745  -2213172.89645  23794638.2554   23794644.4564
      2906.2814
  -3045105.24547   -156309.52846  21892248.6784   21892253.4024
      -962.6924
 -12709415.277 6  -9900794.182 6  21872216.638    21872211.695
      1665.741
 96  6  9  0 59  0.0000000  0  8G17G21G22G23G 6G 3G26G28
  -4143866.73048  -3186459.45647  20413741.1564   20413746.9114
       -75.8984
  -9054525.77945  -6645508.75645  23633285.8234   23633292.3994
      2688.8074
   2426792.50145   3743497.67745  24596190.4824   24596195.8044
     -2193.2994
  -9093012.51248  -6961574.05547  21089006.8364   21089012.5914
       905.6274
  13080962.45045  10160120.33345  23040957.0314   23040963.3374
     -3723.6104
  -3173394.48945  -2280987.07045  23778076.8584   23778082.4384
      2895.8144
  -3015918.56046   -133566.66146  21897801.6844   21897807.1584
      -982.8174
 -12759122.659 6  -9939527.211 6  21862757.952    21862753.033
      1648.361
 96  6  9  0 59 30.0000000  0  8G17G21G22G23G 6G 3G26G28
  -4141394.38748  -3184532.95547  20414211.5084   20414217.2874
       -89.1844
  -9135106.94345  -6708299.23445  23617951.5794   23617957.2644
      2682.9834
   2492770.00645   3794908.67545  24608745.6784   24608751.7394
     -2205.3154
  -9120001.74048  -6982604.61247  21083871.1274   21083876.7544
       893.5214
  13192794.95045  10247262.50045  23062238.4784   23062244.7264
     -3732.2264
  -3260107.83345  -2348555.89745  23761575.0964   23761580.6184
      2884.6894
  -2986127.45947   -110352.82646  21903471.4034   21903476.7834
     -1003.6934
 -12808314.719 6  -9977858.672 6  21853396.544    21853392.247
      1630.766
 96  6  9  1  0  0.0000000  0  8G17G21G22G23G 6G 3G26G28
  -4138517.11548  -3182290.92447  20414759.1094   20414764.9584
      -102.5564
  -9215505.45645  -6770947.39445  23602652.4894   23602658.2224
      2676.9554
   2559103.15144   3846596.74445  24621368.1214   24621374.0764
     -2216.8884
  -9146627.25248  -7003351.75747  21078804.3024   21078810.2684
       881.4084
  13304903.91245  10334620.10445  23083571.2324   23083578.1724
     -3741.9104
  -3346474.82045  -2415854.78045  23745141.5514   23745147.3074
      2873.0584
  -2955699.36247    -86642.61146  21909262.0674   21909266.9904
     -1024.7334
 -12856970.989 6 -10015772.647 6  21844137.685    21844132.853
      1612.965
 96  6  9  1  0 30.0000000  0  8G17G21G22G23G 6G 3G26G28
  -4135247.63848  -3179743.28447  20415381.2294   20415387.1484
      -115.4414
  -9295723.10145  -6833454.63245  23587387.1634   23587393.8794
      2670.7444
   2625773.06244   3898547.32845  24634054.4684   24634059.4384
     -2227.8094
  -9172885.56048  -7023812.76847  21073807.6634   21073813.3254
       868.9184
  13417306.71245  10422206.62845  23104961.9144   23104966.7204
     -3751.5054
  -3432494.96345  -2482883.41445  23728771.8694   23728777.6134
      2861.4694
  -2924643.82847    -62443.50846  21915171.3654   21915176.5694
     -1045.6854
 -12905096.519 6 -10053273.055 6  21834979.575    21834974.656
      1595.281
 96  6  9  1  1  0.0000000  0  8G17G21G22G23G 6G 3G26G28
  -4131585.15848  -3176889.40547  20416078.4464   20416084.3074
      -128.8074
  -9375745.70945  -6895809.84345  23572158.6144   23572165.9754
      2664.0774
   2692769.49345   3950752.26745  24646804.2394   24646808.3654
     -2238.5854
  -9198755.97348  -7043971.52647  21068884.2504   21068890.2404
       855.8154
  13529986.36945  10510008.92045  23126404.0774   23126409.7854
     -3760.5484
  -3518155.33045  -2549631.75145  23712472.4634   23712477.0234
      2849.3564
  -2892960.22947    -37754.98646  21921201.3474   21921206.0354
     -1066.5204
 -12952682.282 6 -10090352.862 6  21825924.464    21825919.650
      1577.051
 96  6  9  1  1 30.0000000  0  8G17G21G22G23G 6G 3G26G28
  -4127516.28248  -3173718.85847  20416852.6674   20416858.5054
      -142.2314
  -9455564.46445  -6958006.23345  23556969.9354   23556976.0304
      2657.4624
   2760088.11144   4003208.31645  24659614.2084   24659621.8394
     -2248.8844
  -9224239.92648  -7063829.14547  21064034.7064   21064040.6384
       843.4204
  13642938.52445  10598023.54545  23147897.4464   23147903.1434
     -3769.2754
  -3603460.14745  -2616103.00245  23696239.6674   23696246.1034
      2838.0354
  -2860655.49347    -12582.47246  21927347.9674   21927352.9024
     -1086.6324
 -12999720.031 6 -10127005.649 6  21816973.462    21816968.851
      1559.100
 96  6  9  1  2  0.0000000  0  8G17G21G22G23G 6G 3G26G28
  -4123040.44348  -3170231.18647  20417704.2834   20417710.0624
      -156.3114
  -9535184.07645  -7020047.44545  23541818.4894   23541824.8774
      2650.2054
   2827716.07044   4055905.37945  24672482.6754   24672490.2484
     -2260.0234
  -9249350.15748  -7083395.55947  21059256.5204   21059262.1004
       830.3584
  13756152.58145  10686242.24245  23169441.8894   23169447.8214
     -3778.4454
  -3688429.19545  -2682312.63645  23680070.0794   23680073.7604
      2826.3374
  -2827759.52447     13050.75846  21933608.3154   21933613.2734
     -1106.4284
 -13046219.087 6 -10163238.674 6  21808124.652    21808120.589
      1540.625
 96  6  9  1  2 30.0000000  0  8G17G21G22G23G 6G 3G26G28
  -4118162.29148  -3166430.02647  20418632.2204   20418638.1644
      -168.8184
  -9614596.66345  -7081927.34545  23526707.3034   23526713.8674
      2644.0514
   2895673.09345   4108858.87745  24685416.0694   24685423.3844
     -2270.3114
  -9274078.85848  -7102664.67247  21054550.9854   21054556.4954
       818.4204
  13869609.78145  10774650.35745  23191032.6004   23191037.6754
     -3785.0874
  -3773062.92145  -2748260.99445  23663963.4354   23663967.9134
      2816.0564
  -2794297.01247     39125.42746  21939976.0494   21939980.9134
     -1124.2254
 -13092177.613 6 -10199050.502 6  21799379.152    21799374.929
      1523.353
 96  6  9  1  3  0.0000000  0  8G17G21G22G23G 6G 3G26G28
  -4112887.57448  -3162319.86147  20419636.1354   20419641.9844
      -183.0434
  -9693798.81946  -7143643.27146  23511635.4734   23511641.1354
      2635.9174
   2963960.63545   4162069.87845  24698411.4924   24698418.1034
     -2282.4684
  -9298432.47848  -7121641.50447  21049916.1654   21049921.9444
       805.0044
  13983285.75445  10863229.01945  23212663.7384   23212669.0134
     -3793.6524
  -3857370.72745  -2813955.36045  23647922.0884   23647927.9144
      2804.2834
  -2760284.13547     65628.98246  21946448.0594   21946453.4044
     -1143.4754
 -13137595.881 6 -10234441.359 6  21790736.358    21790731.696
      1504.369
 96  6  9  1  3 30.0000000  0  8G17G21G22G23G 6G 3G26G28
  -4107193.00648  -3157882.53247  20420720.2934   20420725.8614
      -196.4134
  -9772764.79345  -7205175.13345  23496609.0894   23496614.6574
      2628.6454
   3032604.88144   4215558.85945  24711472.0764   24711478.2064
     -2293.5954
  -9322392.42948  -7140311.59147  21045357.1474   21045362.9264
       792.2854
  14097218.76045  10952007.92945  23234344.8774   23234351.0544
     -3801.7434
  -3941332.12745  -2879379.79045  23631943.9424   23631948.9714
      2793.1134
  -2725695.14247     92581.43446  21953030.1094   21953035.7834
     -1162.4894
 -13182452.834 6 -10269394.827 6  21782200.279    21782196.136
      1486.146
 96  6  9  1  4  0.0000000  0  8G17G21G22G23G 6G 3G26G28
  -4101108.78048  -3153141.57847  20421877.9464   20421883.8774
      -209.4214
  -9851522.19845  -7266544.53445  23481621.6874   23481628.6264
      2621.6694
   3101574.06845   4269301.00345  24724597.4014   24724602.8644
     -2304.5964
  -9345968.41548  -7158682.48347  21040870.6434   21040876.2704
       779.0754
  14211388.21745  11040971.09345  23256070.4394   23256077.3204
     -3809.7594
  -4024953.34745  -2944539.18445  23616032.1464   23616036.6124
      2781.3304
  -2690527.38547    119984.87346  21959722.5534   21959727.8164
     -1182.3934
 -13226764.296 6 -10303923.229 6  21773768.418    21773763.494
      1467.666
 96  6  9  1  4 30.0000000  0  8G17G21G22G23G 6G 3G26G28
  -4094634.51048  -3148096.69547  20423110.0444   20423115.7064
      -222.1874
  -9930072.34046  -7327752.35545  23466675.4364   23466680.7114
      2615.2434
   3170861.80944   4323291.36845  24737781.5134   24737786.5304
     -2314.2384
  -9369143.81548  -7176741.22647  21036460.7154   21036466.3654
       766.1144
  14325791.92045  11130116.75745  23277840.1624   23277846.0344
     -3817.0684
  -4108219.06545  -3009421.51845  23600186.2034   23600189.8494
      2769.8654
  -2654751.88247    147861.89346  21966530.5724   21966535.6824
     -1202.6564
 -13270517.610 6 -10338016.706 6  21765442.499    21765437.527
      1449.336
 96  6  9  1  5  0.0000000  0  8G17G21G22G23G 6G 3G26G28
  -4087781.34048  -3142756.56347  20424413.7574   20424419.6184
      -234.5404
 -10008445.27146  -7388822.16245  23451759.9774   23451765.9554
      2609.9004
   3240416.61744   4377489.86345  24751018.0864   24751023.6194
     -2322.6264
  -9391944.95748  -7194508.33947  21032122.1084   21032127.7704
       754.1764
  14440412.28945  11219431.28345  23299652.4064   23299658.5014
     -3824.1294
  -4191152.76645  -3074045.10945  23584404.4294   23584409.8924
      2759.1314
  -2618363.99247    176216.06446  21973455.6444   21973460.6264
     -1223.1634
 -13313731.343 6 -10371689.741 6  21757218.953    21757214.625
      1431.755
 96  6  9  1  5 30.0000000  0  8G17G21G22G23G 6G 3G26G28
  -4080543.93248  -3137117.01947  20425791.1744   20425797.1414
      -247.5984
 -10086652.33146  -7449762.68045  23436878.0874   23436883.3864
      2604.2544
   3310234.47844   4431893.35245  24764305.8754   24764312.8384
     -2331.5284
  -9414371.03348  -7211983.19747  21027854.2284   21027859.7844
       741.2224
  14555254.84945  11308918.93345  23321505.7924   23321512.8374
     -3831.6244
  -4273741.59545  -3138400.02645  23568688.5674   23568693.8544
      2747.1624
  -2581345.47747    205061.68246  21980498.9554   21980503.7264
     -1244.3674
 -13356402.411 6 -10404939.917 6  21749099.219    21749094.432
      1413.261
 96  6  9  1  6  0.0000000  0  8G17G21G22G23G 6G 3G26G28
  -4072919.01648  -3131175.52847  20427241.8344   20427247.7074
      -261.2304
 -10164690.71345  -7510571.77246  23422026.8414   23422033.9804
      2597.8114
   3380324.78744   4486509.11045  24777642.4964   24777646.3064
     -2341.7334
  -9436412.85748  -7229158.63547  21023659.4324   21023665.0594
       727.7884
  14670317.97945  11398578.46445  23343400.9814   23343406.8194
     -3839.7464
  -4355972.74945  -3202476.20245  23553038.8214   23553044.9404
      2734.4604
  -2543701.65847    234394.52046  21987663.0504   21987668.1374
     -1265.5154
 -13398519.882 6 -10437758.718 6  21741084.470    21741079.538
      1394.146
 96  6  9  1  6 30.0000000  0  8G17G21G22G23G 6G 3G26G28
  -4064889.76948  -3124918.97147  20428770.0454   20428775.7664
      -275.1164
 -10242540.01546  -7571233.52345  23407213.9774   23407220.3194
      2591.0814
   3450713.81244   4541357.69645  24791036.6774   24791042.5494
     -2352.0604
  -9458066.27648  -7246031.41747  21019539.3954   21019545.1744
       714.8804
  14785614.16045  11488419.59445  23365341.7474   23365347.9014
     -3847.7364
  -4437832.21245  -3266262.80245  23537462.9564   23537468.0904
      2721.8344
  -2505445.76247    264204.30346  21994942.2654   21994947.4114
     -1285.8414
 -13440076.283 6 -10470140.325 6  21733176.163    21733171.693
      1375.250
 96  6  9  1  7  0.0000000  0  8G17G21G22G23G 6G 3G26G28
  -4056442.90448  -3118336.99547  20430377.6994   20430383.3964
      -287.9874
 -10320188.48846  -7631738.77546  23392438.1674   23392443.9354
      2585.4134
   3521420.59844   4596453.79045  24804491.6174   24804498.5444
     -2361.7914
  -9479335.70348  -7262604.98747  21015492.1134   21015497.7514
       703.0484
  14901155.12945  11578451.48845  23387327.9674   23387334.2624
     -3855.0354
  -4519308.85745  -3329751.06345  23521959.0124   23521964.8614
      2709.8164
  -2466584.27547    294485.97846  22002337.6654   22002342.7414
     -1304.7704
 -13481065.823 6 -10502080.227 6  21725375.963    21725371.477
      1357.384
 96  6  9  1  7 30.0000000  0  8G17G21G22G23G 6G 3G26G28
  -4047594.21948  -3111441.91947  20432061.1334   20432067.0644
      -301.8934
 -10397644.84046  -7692094.34046  23377697.8164   23377704.2754
      2578.4064
   3592434.76444   4651789.49045  24818003.7954   24818008.8594
     -2372.3404
  -9500229.53248  -7278885.88547  21011515.8834   21011521.3234
       689.9984
  15016934.17645  11668668.83845  23409361.9394   23409368.0704
     -3863.5134
  -4600397.24445  -3392936.76845  23506528.0854   23506533.4424
      2696.1804
  -2427154.98947    325210.08946  22009840.6014   22009845.9354
     -1323.7774
 -13521501.870 6 -10533588.834 6  21717682.044    21717676.736
      1338.428
 96  6  9  1  8  0.0000000  0  8G17G21G22G23G 6G 3G26G28
  -4038321.70748  -3104216.57947  20433825.5894   20433831.5444
      -316.2254
 -10474883.83146  -7752280.52946  23362999.4074   23363005.2104
      2570.8634
   3663765.96343   4707372.13245  24831578.2574   24831582.2314
     -2382.8354
  -9520736.87248  -7294865.62347  21007613.2104   21007618.7544
       677.2634
  15132970.08845  11759086.37545  23431441.7024   23431447.1414
     -3872.1254
  -4681074.99045  -3455802.54245  23491174.6244   23491181.3524
      2682.3744
  -2387146.52847    356385.50946  22017454.3124   22017459.2234
     -1343.4794
 -13561367.389 6 -10564652.883 6  21710095.310    21710091.186
      1319.359
 96  6  9  1  8 30.0000000  0  8G17G21G22G23G 6G 3G26G28
  -4028625.37848  -3096660.99747  20435670.7524   20435676.6844
      -330.2814
 -10551903.86945  -7812296.10245  23348342.5264   23348348.5874
      2563.7084
   3735388.35444   4763181.73245  24845208.8054   24845214.8774
     -2391.9764
  -9540871.66748  -7310555.06847  21003781.6154   21003787.2424
       665.0904
  15249252.64045  11849696.11445  23453569.8094   23453574.8264
     -3880.0404
  -4761353.58445  -3518357.22545  23475897.9174   23475904.0474
      2669.5904
  -2346552.12347    388017.50946  22025179.2804   22025183.9584
     -1362.8784
 -13600668.973 6 -10595277.486 6  21702616.583    21702611.826
      1300.658
 96  6  9  1  9  0.0000000  0  8G17G21G22G23G 6G 3G26G28
  -4018508.82548  -3088777.97147  20437595.8904   20437601.7164
      -344.0094
 -10628712.13146  -7872146.65745  23333726.9784   23333732.3004
      2556.9554
   3807282.59345   4819203.16045  24858890.5594   24858895.1314
     -2400.8314
  -9560638.69048  -7325957.92947  21000020.1224   21000025.8304
       652.8744
  15365774.36145  11940492.18545  23475743.3314   23475749.0984
     -3887.9174
  -4841247.55145  -3580612.24845  23460694.3164   23460700.2364
      2656.8474
  -2305372.47247    420105.53946  22033014.9894   22033019.7724
     -1382.3224
 -13639406.694 6 -10625462.723 6  21695244.951    21695240.062
      1282.001
 96  6  9  1  9 30.0000000  0  8G17G21G22G23G 6G 3G26G28
  -4007972.51748  -3080567.87247  20439601.1894   20439606.8864
      -357.9634
 -10705305.90745  -7931830.09445  23319151.1114   23319156.6794
      2549.8114
   3879454.47145   4875440.93845  24872623.6154   24872628.6324
     -2410.3484
  -9580032.81048  -7341070.22147  20996329.9864   20996335.7184
       640.4674
  15482537.20645  12031476.18045  23497961.0984   23497966.2674
     -3895.6664
  -4920756.10045  -3642566.94045  23445565.4874   23445570.2934
      2644.1904
  -2263596.72447    452658.06146  22040964.7894   22040969.8644
     -1402.4224
 -13677575.439 6 -10655204.607 6  21687981.762    21687977.103
      1262.953
 96  6  9  1 10  0.0000000  0  8G17G21G22G23G 6G 3G26G28
  -3997027.67248  -3072039.41947  20441682.3114   20441688.2314
      -371.7014
 -10781697.04646  -7991355.60946  23304615.6954   23304621.9904
      2542.8794
   3951909.15543   4931899.06045  24886408.4344   24886416.5104
     -2420.0854
  -9599065.33548  -7355900.75447  20992709.5854   20992715.1294
       628.2314
  15599509.01745  12122622.99045  23520220.3644   23520226.3074
     -3902.4224
  -4999902.42145  -3704239.37045  23430505.1884   23430509.9124
      2632.1694
  -2221223.21547    485676.37546  22049028.6654   22049033.2714
     -1422.3834
 -13715178.646 6 -10684505.798 6  21680826.310    21680821.571
      1243.903
 96  6  9  1 10 30.0000000  0  8G17G21G22G23G 6G 3G26G28
  -3985674.71648  -3063192.97047  20443844.1764   20443850.0614
      -384.9604
 -10857883.36846  -8050721.53846  23290117.4494   23290123.8964
      2536.4404
   4024652.45444   4988582.10145  24900254.6244   24900261.7634
     -2429.4524
  -9617723.31348  -7370439.43947  20989157.6804   20989163.0964
       615.9264
  15716684.38545  12213928.38245  23542519.2184   23542525.2904
     -3909.0294
  -5078687.83145  -3765630.61245  23415512.5324   23415517.7024
      2620.3424
  -2178265.14147    519150.19246  22057202.8114   22057208.1104
     -1441.2534
 -13752209.753 6 -10713361.212 6  21673779.426    21673774.528
      1225.052
 96  6  9  1 11  0.0000000  0  8G17G21G22G23G 6G 3G26G28
  -3973918.26348  -3054032.09847  20446081.3594   20446087.3254
      -398.2144
 -10933868.39146  -8109930.63346  23275656.6854   23275662.6754
      2529.7804
   4097697.75543   5045500.46545  24914152.8344   24914158.4024
     -2439.6234
  -9636005.12748  -7384685.00047  20985678.6124   20985684.2394
       603.4074
  15834066.15545  12305394.62845  23564856.3224   23564863.0154
     -3915.8014
  -5157096.54245  -3826728.26945  23400591.0294   23400596.8444
      2607.3814
  -2134728.02946    553075.21746  22065487.5344   22065492.9734
     -1460.7324
 -13788665.129 6 -10741768.002 6  21666842.147    21666837.690
      1205.863
 96  6  9  1 11 30.0000000  0  8G17G21G22G23G 6G 3G26G28
  -3961763.31348  -3044560.71947  20448394.5664   20448400.3224
      -411.5344
 -11009646.27546  -8168978.28446  23261237.6284   23261243.7354
      2522.6954
   4171041.41543   5102651.29245  24928109.8424   24928116.3484
     -2449.3344
  -9653907.94848  -7398635.24247  20982271.5584   20982277.2434
       590.6834
  15951646.73745  12397015.81145  23587231.1714   23587237.3844
     -3922.2874
  -5235116.18445  -3887522.76645  23385744.5984   23385750.6124
      2594.4194
  -2090608.20647    587454.29346  22073883.2444   22073888.0734
     -1479.9424
 -13824541.534 6 -10769723.639 6  21660015.020    21660010.345
      1186.452
 96  6  9  1 12  0.0000000  0  8G17G21G22G23G 6G 3G26G28
  -3949221.86548  -3034788.16247  20450780.7774   20450786.6614
      -424.5094
 -11085227.69846  -8227872.84545  23246855.0494   23246861.7074
      2516.1354
   4244651.34342   5160009.63845  24942114.0674   24942119.9164
     -2457.6934
  -9671443.27548  -7412299.12347  20978934.4424   20978940.2804
       578.5034
  16069409.43745  12488778.89845  23609640.2534   23609645.6224
     -3928.5604
  -5312759.06145  -3948023.71045  23370970.2284   23370975.1164
      2581.9044
  -2045934.17246    622265.21346  22082384.1124   22082389.3644
     -1498.2004
 -13859850.513 6 -10797237.128 6  21653295.998    21653291.079
      1167.682
 96  6  9  1 12 30.0010000  0  8G17G21G22G23G 6G 3G26G28
  -3936274.66748  -3024699.44247  20453244.7874   20453250.6374
      -438.3864
 -11160599.54146  -8286604.12446  23232512.4704   23232518.9994
      2508.8324
   4318523.68544   5217572.46245  24956178.0954   24956185.9484
     -2466.7694
  -9688599.24448  -7425667.41447  20975670.4084   20975676.1524
       565.5834
  16187390.04445  12580711.80845  23632091.4924   23632098.9354
     -3936.2224
  -5390014.02945  -4008222.35745  23356267.3704   23356273.7004
      2568.5564
  -2000687.07746    657522.69946  22090993.5984   22090999.2244
     -1517.9114
 -13894583.598 6 -10824301.868 6  21646686.719    21646681.858
      1148.022
 96  6  9  1 13  0.0010000  0  8G17G21G22G23G 6G 3G26G28
  -3922918.95548  -3014292.39747  20455786.1334   20455791.8184
      -451.7484
 -11235762.75446  -8345172.80346  23218208.8754   23218215.1814
      2502.3944
   4392653.81543   5275336.13045  24970280.9574   24970288.2484
     -2474.9544
  -9705380.88548  -7438744.01347  20972477.0074   20972482.4814
       553.2944
  16305576.14945  12672804.80845  23654582.6974   23654588.3354
     -3942.6154
  -5466872.75546  -4068112.25045  23341644.1234   23341648.9294
      2555.6694
  -1954858.03447    693233.63046  22099715.4594   22099720.5934
     -1537.0764
 -13928733.387 6 -10850912.103 6  21640188.151    21640183.491
      1128.809
 96  6  9  1 13 30.0010000  0  8G17G21G22G23G 6G 3G26G28
  -3909167.85248  -3003577.26147  20458403.3724   20458409.0224
      -465.1214
 -11310744.61646  -8403600.19646  23203941.2084   23203947.2804
      2496.3144
   4467015.77244   5333280.43845  24984434.1744   24984440.0004
     -2482.6074
  -9721801.44048  -7451539.25447  20969352.1924   20969357.8544
       541.3294
  16423943.93145  12765039.40145  23677106.1174   23677111.5684
     -3948.7404
  -5543359.29745  -4127712.15645  23327088.7324   23327094.6644
      2543.2954
  -1908471.40947    729379.05946  22108543.2014   22108548.2304
     -1555.4784
 -13962314.305 6 -10877079.050 6  21633797.953    21633793.083
      1109.812
 96  6  9  1 14  0.0010000  0  8G17G21G22G23G 6G 3G26G28
  -3895004.72548  -2992541.05647  20461098.0424   20461103.8454
      -479.0664
 -11385534.20246  -8461877.74946  23189708.2744   23189715.1784
      2489.5024
   4541620.86145   5391414.20345  24998631.8264   24998637.2184
     -2491.0644
  -9737854.07048  -7464047.79447  20966297.3414   20966303.1794
       528.8454
  16542506.96145  12857426.09045  23699669.0474   23699676.8544
     -3955.4634
  -5619456.01645  -4187008.30545  23312607.1834   23312612.5404
      2529.8254
  -1861520.99646    765963.78046  22117476.3594   22117482.2204
     -1574.5674
 -13995314.008 6 -10902793.106 6  21627518.255    21627513.406
      1090.159
 96  6  9  1 14 30.0010000  0  8G17G21G22G23G 6G 3G26G28
  -3880434.63448  -2981187.74547  20463870.8574   20463876.8114
      -492.1904
 -11460124.51146  -8520000.04346  23175514.3914   23175520.0654
      2483.2604
   4616474.35443   5449741.58945  25012874.2714   25012881.2814
     -2499.1714
  -9753544.74848  -7476274.29147  20963311.3264   20963317.0704
       517.2464
  16661253.02645  12949955.43645  23722264.0874   23722270.5694
     -3960.7564
  -5695152.69546  -4245992.67445  23298203.6274   23298209.6284
      2516.6574
  -1814006.46447    802988.07846  22126519.0444   22126523.3234
     -1592.9294
 -14027731.565 6 -10928053.535 6  21621349.418    21621344.629
      1071.021
 96  6  9  1 15  0.0010000  0  8G17G21G22G23G 6G 3G26G28
  -3865467.95348  -2969525.40447  20466719.4244   20466725.2264
      -505.2844
 -11534518.00746  -8577968.97746  23161357.0484   23161362.7574
      2476.4834
   4691574.87543   5508261.35645  25027163.9864   25027171.5354
     -2507.2354
  -9768878.98948  -7488223.05047  20960393.0824   20960398.6854
       505.2794
  16780152.06645  13042603.95445  23744890.6504   23744898.2354
     -3965.6224
  -5770445.57345  -4304662.43845  23283874.5204   23283880.3344
      2503.0884
  -1765943.70446    840439.61046  22135664.9464   22135669.7414
     -1611.2284
 -14059569.381 6 -10952862.229 6  21615291.153    21615286.166
      1051.719
 96  6  9  1 15 30.0010000  0  8G17G21G22G23G 6G 3G26G28
  -3850103.33148  -2957552.97647  20469642.7834   20469648.4804
      -518.7004
 -11608695.51646  -8635769.59746  23147242.2944   23147248.3784
      2468.8504
   4766924.04844   5566974.91245  25041503.8254   25041509.5694
     -2515.5744
  -9783852.29248  -7499890.56047  20957544.0814   20957549.6614
       493.3544
  16899205.27345  13135372.62345  23767545.8274   23767550.6224
     -3970.8344
  -5845327.15045  -4363011.68445  23269625.3624   23269630.6144
      2489.3084
  -1717319.21446    878328.78246  22144918.0354   22144923.8494
     -1630.0244
 -14090825.733 6 -10977217.817 6  21609342.993    21609338.278
      1032.416
 96  6  9  1 16  0.0010000  0  8G17G21G22G23G 6G 3G26G28
  -3834322.77248  -2945256.43547  20472645.4774   20472651.1864
      -532.8784
 -11682624.70046  -8693376.69846  23133174.2624   23133180.3224
      2460.2824
   4842538.56143   5625895.22345  25055892.7524   25055900.8874
     -2524.8044
  -9798452.91348  -7511267.66647  20954765.7024   20954771.4814
       480.4744
  17018421.56145  13228268.37345  23790231.8724   23790237.9444
     -3976.4234
  -5919780.36445  -4421027.15745  23255457.4284   23255463.1014
      2474.7924
  -1668116.72147    916668.37946  22154281.0244   22154286.2874
     -1649.6464
 -14121488.089 6 -11001110.561 6  21603508.309    21603503.450
      1012.250
 96  6  9  1 16 30.0010000  0  8G17G21G22G23G 6G 3G26G28
  -3818124.03548  -2932634.05147  20475728.1874   20475734.1544
      -547.1094
 -11756308.56646  -8750792.69646  23119152.8234   23119158.8954
      2452.1844
   4918417.43043   5685021.59245  25070333.6764   25070340.8964
     -2533.7304
  -9812670.52348  -7522346.31947  20952060.0674   20952065.7054
       467.3444
  17137795.68745  13321287.12845  23812948.6154   23812955.2964
     -3981.8094
  -5993807.26145  -4478710.43245  23241369.0514   23241375.6624
      2460.4414
  -1618331.33746    955462.20146  22163755.0524   22163759.5894
     -1669.3564
 -14151552.095 6 -11024537.055 6  21597787.041    21597782.371
       992.058
 96  6  9  1 17  0.0010000  0  8G17G21G22G23G 6G 3G26G28
  -3801500.00148  -2919680.26447  20478891.4244   20478897.2034
      -561.2114
 -11829761.02946  -8808028.30846  23105175.3574   23105181.6634
      2444.6264
   4994549.77544   5744345.39245  25084820.7254   25084827.3374
     -2541.8114
  -9826500.01548  -7533122.54147  20949428.2894   20949433.9974
       454.5664
  17257332.80345  13414432.83145  23835695.3354   23835701.4544
     -3987.5694
  -6067404.84645  -4536059.17145  23227365.2754   23227370.9954
      2445.9704
  -1567963.56246    994709.80946  22173339.5094   22173344.5034
     -1688.6224
 -14181015.866 6 -11047495.826 6  21592180.196    21592175.652
       972.094
 96  6  9  1 17 30.0010000  0  8G17G21G22G23G 6G 3G26G28
  -3784442.37048  -2906388.60747  20482137.3984   20482143.3424
      -576.0084
 -11902983.78846  -8865084.98246  23091240.9614   23091247.3844
      2436.8764
   5070925.70444   5803859.02245  25099354.0694   25099358.8054
     -2549.8244
  -9839941.67748  -7543596.56547  20946870.5734   20946876.0594
       441.5164
  17377058.85045  13507725.81545  23858479.4854   23858485.9554
     -3994.2454
  -6140564.11945  -4593066.39845  23213443.7994   23213448.2414
      2431.3054
  -1517018.26146   1034407.44346  22183034.0314   22183039.3064
     -1707.5214
 -14209876.340 6 -11069984.508 6  21586688.113    21586683.556
       951.906
 96  6  9  1 18  0.0010000  0  8G17G21G22G23G 6G 3G26G28
  -3766961.49148  -2892767.15047  20485463.6874   20485469.6654
      -589.6154
 -11975998.51646  -8921979.54846  23077346.6094   23077352.1074
      2430.6864
   5147519.64343   5863542.56745  25113930.4534   25113933.8994
     -2556.5954
  -9853007.44448  -7553777.68247  20944384.1664   20944390.0034
       429.3724
  17496972.18745  13601164.71045  23881298.1464   23881303.2564
     -4000.2894
  -6213298.77445  -4649742.71545  23199602.0764   23199607.8204
      2417.4084
  -1465530.44847   1074527.80146  22192832.6654   22192837.1434
     -1725.2454
 -14238144.994 6 -11092012.031 6  21581308.894    21581304.199
       932.465
 96  6  9  1 18 30.0010000  0  8G17G21G22G23G 6G 3G26G28
  -3749052.20248  -2878811.86347  20488871.7944   20488877.5854
      -604.1324
 -12048813.63146  -8978718.57246  23063491.0984   23063497.6044
      2423.9044
   5224327.58643   5923392.89545  25128544.6344   25128550.2844
     -2563.8474
  -9865695.04448  -7563664.12047  20941970.0514   20941975.8184
       416.6604
  17617084.35345  13694758.53445  23904152.7204   23904158.6514
     -4006.8884
  -6285599.72246  -4706081.10245  23185844.0604   23185848.9954
      2402.8724
  -1413496.28146   1115073.89446  22202733.7854   22202738.6384
     -1743.4664
 -14265814.206 6 -11113572.453 6  21576043.764    21576039.020
       912.326
 96  6  9  1 19  0.0010000  0  8G17G21G22G23G 6G 3G26G28
  -3730714.70848  -2864522.91047  20492361.5834   20492367.3164
      -618.3434
 -12121430.92046  -9035303.45046  23049672.6744   23049678.6994
      2417.0674
   5301349.99642   5983410.39744  25143203.2104   25143209.7394
     -2571.1394
  -9878012.47748  -7573262.11747  20939626.0244   20939631.5924
       404.4564
  17737390.47345  13788503.52345  23927047.4614   23927054.5064
     -4013.5374
  -6357472.94245  -4762086.17745  23172165.0874   23172171.3354
      2388.6604
  -1360924.41846   1156038.98046  22212737.5314   22212741.9384
     -1761.3534
 -14292884.259 6 -11134666.002 6  21570892.407    21570887.795
       892.276
 96  6  9  1 19 30.0010000  0  8G17G21G22G23G 6G 3G26G28
  -3711954.93448  -2849904.90947  20495931.2234   20495937.1894
      -632.2444
 -12193834.24546  -9091721.58246  23035893.2954   23035899.4614
      2409.7584
                                  25157903.3074
     -2579.0834
  -9889961.03248  -7582572.67847  20937352.6384   20937358.2644
       392.2584
  17857891.92545  13882400.63945  23949979.3994   23949985.7994
     -4019.6984
  -6428926.19746  -4817764.03546  23158570.5284   23158575.9214
      2374.9144
  -1307815.66146   1197422.41446  22222843.3914   22222848.7844
     -1779.2564
 -14319351.288 6 -11155289.651 6  21565855.893    21565851.375
       872.155
 96  6  9  1 20  0.0010000  0  8G17G21G22G23G 6G 3G26G28
  -3692783.97548  -2834966.50347  20499579.2584   20499585.1204
      -645.7644
 -12266013.56246  -9147965.18346  23022158.8384   23022164.8634
      2402.2864
     74918.40442   6103998.20445  25172650.4874   25172657.3914
     -2587.6134
  -9901546.37848  -7591600.21647  20935147.4374   20935152.9354
       380.1264
  17978571.10445  13976436.30445  23972942.6204   23972947.3794
     -4025.4244
  -6499956.90446  -4873112.62246  23145052.2384   23145058.0754
      2360.4254
  -1254154.13446   1239236.59146  22233055.6764   22233060.5294
     -1798.1354
 -14345207.470 6 -11175437.316 6  21560935.827    21560931.181
       851.669
 96  6  9  1 20 30.0010000  0  8G17G21G22G23G 6G 3G26G28
  -3673210.53548  -2819714.47447  20503304.1784   20503310.1214
      -659.1564
 -12337969.64346  -9204034.83146  23008466.1594   23008472.0664
      2394.6184
    152673.97343   6164586.95545  25187447.3084   25187457.3314
     -2596.2884
  -9912770.91548  -7600346.61047  20933011.9474   20933017.5974
       367.9234
  18099410.90545  14070597.09545  23995937.3974   23995943.3874
     -4030.6994
  -6570557.45945  -4928126.01346  23131617.4304   23131623.4904
      2346.1204
  -1199930.95146   1281488.40046  22243373.5094   22243378.9954
     -1816.8944
 -14370453.879 6 -11195109.841 6  21556131.378    21556126.785
       831.272
 96  6  9  1 21  0.0010000  0  8G17G21G22G23G 6G 3G26G28
  -3653243.92648  -2804156.08747  20507103.6784   20507109.5744
      -672.0814
 -12409694.98846  -9259924.67146  22994817.4904   22994823.3514
      2386.8854
    230685.91642   6225375.31945  25202290.4444   25202298.0644
     -2604.5884
  -9923630.95848  -7608808.97447  20930945.1334   20930950.6424
       356.0044
  18220419.20045  14164889.19645  24018964.4834   24018971.4114
     -4036.5364
  -6640724.15445  -4982801.33645  23118266.1584   23118272.5114
      2331.3254
  -1145141.64347   1324181.36646  22253799.9124   22253804.8234
     -1835.8744
 -14395088.983 6 -11214306.022 6  21551443.235    21551438.773
       810.965
 96  6  9  1 21 30.0010000  0  8G17G21G22G23G 6G 3G26G28
  -3632881.83248  -2788289.52047  20510978.8504   20510984.6884
      -685.6004
 -12481181.60546  -9315628.50346  22981212.5874   22981218.5304
      2378.8354
    308944.91243   6286356.29045  25217183.8394   25217192.5254
     -2612.7254
  -9934128.13348  -7616988.58847  20928947.4634   20928953.1964
       343.7324
  18341597.15445  14259313.51645  24042023.8154   24042030.0744
     -4042.0364
  -6710433.06846  -5037119.93346  23105001.3734   23105006.9294
      2315.7334
  -1089777.43246   1367322.31346  22264335.6444   22264341.0014
     -1855.2314
 -14419112.312 6 -11233025.501 6  21546872.040    21546867.227
       790.445
 96  6  9  1 22  0.0010000  0  8G17G21G22G23G 6G 3G26G28
  -3612100.63248  -2772096.38147  20514933.0344   20514938.8834
      -699.7934
 -12552428.39046  -9371145.44446  22967655.2714   22967661.5544
      2371.1814
    387441.27343   6347522.45345  25232122.6534   25232131.4444
     -2620.1844
  -9944251.38048  -7624876.82947  20927021.2254   20927026.8514
       331.0824
  18462936.43545  14353863.53845  24065114.6224   24065120.6944
     -4047.1944
  -6779664.22046  -5091066.27146  23091827.0494   23091832.9684
      2299.7054
  -1033832.51546   1410915.72346  22274981.4064   22274986.6344
     -1874.2694
 -14442515.372 6 -11251261.657 6  21542418.396    21542413.853
       769.894
 96  6  9  1 22 30.0010000  0  8G17G21G22G23G 6G 3G26G28
  -3590886.79048  -2755566.11947  20518970.2374   20518975.8874
      -714.2424
 -12623450.19546  -9426487.08746  22954140.1064   22954145.9444
      2363.7874
    466144.71942   6408849.59745  25247096.8054   25247106.8514
     -2626.4354
  -9953994.03248  -7632468.50147  20925167.3154   20925172.9184
       318.6404
  18584430.84045  14448534.41645  24088235.1164   24088240.6734
     -4052.2344
  -6848418.44246  -5144641.01146  23078742.8664   23078748.5054
      2284.1894
   -977331.24746   1454942.68746  22285733.5774   22285738.5364
     -1892.2544
 -14465306.037 6 -11269020.623 6  21538081.444    21538076.875
       749.669
 96  6  9  1 23  0.0010000  0  8G17G21G22G23G 6G 3G26G28
  -3569233.05048  -2738693.07747  20523090.7714   20523096.2694
      -729.0124
 -12694251.07746  -9481656.57546  22940667.4594   22940672.4414
      2356.5394
     13157.76051   6470325.04345  25262110.0654   25262121.3074
     -2632.6474
  -9963359.80848  -7639766.50347  20923385.2154   20923390.7244
       306.0944
  18706075.67545  14543322.56845  24111382.8654   24111389.4174
     -4056.9204
  -6916701.65145  -5197848.68646  23065747.4374   23065753.1814
      2268.3434
   -920291.63546   1499389.13746  22296588.0344   22296592.8284
     -1909.9874
 -14487484.891 6 -11286302.850 6  21533861.184    21533856.562
       729.226
 96  6  9  1 23 30.0010000  0  8G17G21G22G23G 6G 3G26G28
  -3547131.34148  -2721470.97147  20527296.2374   20527301.8294
      -744.2514
 -12764835.80846  -9536657.64446  22927235.8224   22927242.0124
      2349.2354
     92238.26042   6531946.16845  25277160.6404   25277169.7374
     -2639.2434
  -9972345.23648  -7646768.13347  20921675.4164   20921681.0314
       293.0034
  18827849.62745  14638211.25445  24134555.6454   24134560.8854
     -4061.3224
  -6984520.85346  -5250694.80646  23052843.8564   23052848.5804
      2253.1324
   -862729.32746   1544242.87746  22307541.1714   22307546.7394
     -1927.3774
 -14509048.971 6 -11303106.029 6  21529757.633    21529753.119
       708.471
 96  6  9  1 24  0.0010000  0  8G17G21G22G23G 6G 3G26G28
  -3524585.42948  -2703902.72947  20531586.8964   20531592.5464
      -758.6404
 -12835209.64546  -9591494.37546  22913843.7684   22913849.8754
      2342.4964
    171508.08242                  25292244.8854
     -2645.2834
  -9980948.77848  -7653472.18547  20920038.1064   20920043.6394
       280.5824
  18949750.63145  14733199.02445  24157753.3444   24157759.8624
     -4065.5184
  -7051897.34346  -5303195.94846  23040022.4174   23040028.7124
      2238.6484
   -804655.53646   1589495.15546  22318593.0014   22318597.5614
     -1944.2334
 -14529999.253 6 -11319430.931 6  21525770.966    21525766.170
       688.276
 96  6  9  1 24 30.0010000  0  8G17G21G22G23G 6G 3G26G28
  -3501602.52248  -2685993.97747  20535960.2114   20535965.9434
      -773.3164
 -12905370.17046  -9646164.87946  22900492.7954   22900498.9144
      2335.0864
     45047.46852                  25307367.5944
     -2651.9154
  -9989165.86748  -7659875.10647  20918474.1184   20918479.6984
       267.5554
  19071795.02745  14828298.44645  24180976.4834   24180981.2424
     -4070.4814
  -7118828.13246  -5355349.80046  23027285.8114   23027291.0864
      2223.8204
   -746058.30346   1635155.33546  22329743.0904   22329747.7784
     -1962.0014
 -14550331.278 6 -11335274.071 6  21521901.890    21521896.995
       667.420
 96  6  9  1 25  0.0010000  0  8G17G21G22G23G 6G 3G26G28
  -3478190.66848  -2667750.97547  20540415.4414   20540421.1264
      -787.5144
 -12975318.52546  -9700670.05946  22887182.8424   22887189.2544
      2327.9924
    124712.18442     20707.51154  25322524.5194   25322525.1284
     -2659.0974
  -9997002.73948  -7665981.75947  20916982.1934   20916987.6914
       254.8914
  19193976.84745  14923505.01745  24204227.9074   24204235.0814
     -4074.9914
  -7185319.18046  -5407160.99046  23014632.5554   23014637.8894
      2208.8204
   -686933.85946   1681226.32046  22340993.3954   22340998.8694
     -1979.7004
 -14570045.226 6 -11350635.593 6  21518150.261    21518145.594
       646.786
 96  6  9  1 25 30.0010000  0  8G17G21G22G23G 6G 3G26G28
  -3454346.13348  -2649170.82647  20544952.8104   20544958.6944
      -801.9594
 -13045039.52946  -9754998.06546  22873914.6914   22873920.7754
      2320.2464
    204591.63543                  25337725.2084
     -2665.9524
 -10004457.68848  -7671790.80147  20915564.3494   20915569.8934
       242.3354
  19316302.48644  15018823.62445  24227505.5534   24227514.5914
     -4079.8924
  -7251350.43245  -5458613.90746  23002067.1604   23002072.9864
      2193.2224
   -627269.86646   1727717.73546  22352347.7574   22352352.8564
     -1997.8144
 -14589134.399 6 -11365510.275 6  21514517.897    21514513.269
       625.997
 96  6  9  1 26  0.0010000  0  8G17G21G22G23G 6G 3G26G28
  -3430066.06148  -2630251.29247  20549572.6694   20549578.6944
      -816.7114
 -13114523.96946  -9809141.77946  22860692.7554   22860698.3934
      2312.2744
    284671.77043                  25352964.5664
     -2672.5444
 -10011538.20448  -7677308.08447  20914216.7364   20914222.4094
       229.8554
  19438782.34044  15114262.40545  24250811.3364   24250819.7294
     -4085.2934
  -7316893.51946  -5509686.42246  22989593.8904   22989599.8334
      2176.3624
   -567056.40146   1774637.31546  22363804.9984   22363810.2384
     -2016.3334
 -14607596.993 6 -11379896.713 6  21511004.323    21511000.030
       604.916
 96  6  9  1 26 30.0010000  0  9G 9G17G21G22G23G 6G 3G26G28
    -40661.25852                  25313744.8504
      2540.3264
  -3405343.38548  -2610986.87947  20554277.7044   20554283.5774
      -831.7304
 -13183778.42746  -9863106.25646  22847513.8954   22847519.6284
      2304.4094
    364947.94742                  25368240.9074
     -2679.5324
 -10018247.62548  -7682536.20247  20912940.5114   20912946.0684
       217.4054
  19561417.95843  15209822.55945  24274150.0684   24274156.6084
     -4090.5434
  -7381929.82846  -5560364.06946  22977219.3744   22977224.6024
      2159.2364
   -506294.34746   1821984.34346  22375368.7764   22375374.1924
     -2034.5274
 -14625427.121 6 -11393790.323 6  21507611.774    21507606.971
       583.524
 96  6  9  1 27  0.0010000  0  9G 9G17G21G22G23G 6G 3G26G28
   -116819.29042                  25299253.7334
      2537.2374
  -3380178.99548  -2591378.28147  20559066.5324   20559072.4754
      -845.5334
 -13252793.55246  -9916884.24346  22834379.1154   22834384.9064
      2296.8764
    445435.13642      2090.16753  25383557.9394   25383564.5854
     -2685.8124
 -10024596.31148  -7687483.22947  20911731.8954   20911737.6284
       206.1254
  19684204.68643  15305500.40145  24297515.4254   24297521.4744
     -4094.9014
  -7446457.93946  -5610645.70446  22964940.0914   22964945.4954
      2142.9244
   -444994.34046   1869750.58346  22387033.3524   22387038.2644
     -2051.9824
 -14642619.812 6 -11407187.229 6  21504340.188    21504335.324
       562.928
 96  6  9  1 27 30.0010000  0  9G 9G17G21G22G23G 6G 3G26G28
    -27872.02751                  25284777.0284
      2533.7424
  -3354594.56548  -2571442.36547  20563935.4054   20563940.8674
      -859.5234
 -13321573.35746  -9970478.88046  22821291.6964   22821297.4524
      2289.1704
    526110.26941     64953.77345  25398908.3014   25398908.1254
     -2691.9874
 -10030597.43748  -7692159.42747  20910590.1414   20910595.7914
       194.6114
  19807128.51343  15401285.07845  24320907.1424   24320912.2654
     -4099.3364
  -7510493.79246  -5660543.77346  22952754.1734   22952759.7534
      2126.8394
   -383153.11746   1917938.53746  22398801.9004   22398806.2964
     -2070.1174
 -14659183.375 6 -11420093.914 6  21501188.131    21501183.130
       541.888
 96  6  9  1 28  0.0010000  0  9G 9G17G21G22G23G 6G 3G26G28
   -103823.60842                  25270325.2374
      2530.0484
  -3328594.92548  -2551182.91647  20568882.6364   20568888.5214
      -873.4234
 -13390132.35246 -10023901.44046  22808245.7534   22808251.1344
      2281.7394
    606967.94741                  25414295.8374
     -2698.2404
 -10036261.05648  -7696572.63247  20909511.8034   20909517.4894
       183.2864
  19930178.20443  15497167.87245  24344321.3064   24344331.0594
     -4103.4774
  -7574064.79246  -5710079.61446  22940657.2174   22940663.0674
      2111.8524
   -320773.50046   1966546.01546  22410671.9694   22410677.7594
     -2088.0974
 -14675119.335 6 -11432511.548 6  21498155.511    21498150.637
       520.863
 96  6  9  1 28 30.0010000  0  9G 9G17G21G22G23G 6G 3G26G28
   -179663.85842                  25255895.5374
      2526.2234
  -3302189.14348  -2530606.98447  20573907.3994   20573913.2024
      -886.4714
 -13458462.33046 -10077145.55046  22795243.0524   22795248.7724
      2273.8084
    688017.27241                  25429718.2154
     -2704.4544
 -10041585.00048  -7700721.16047  20908499.4034   20908505.1594
       172.0654
  20053335.21443  15593134.24945  24367757.6004   24367760.3674
     -4106.4774
  -7637204.81246  -5759279.63746  22928641.7674   22928647.8154
      2097.9314
   -257861.77946   2015568.12746  22422644.0834   22422648.7254
     -2105.4724
 -14690427.942 6 -11444440.342 6  21495242.448    21495237.607
       500.191
 96  6  9  1 29  0.0010000  0  8G 9G17G21G23G 6G 3G26G28
   -255365.35142                  25241490.2774
      2520.9264
  -3275378.56448  -2509715.62647  20579009.4244   20579015.3204
      -900.6064
 -13526526.26746 -10130182.36246  22782290.7114   22782296.4194
      2264.1624
 -10046557.00748  -7704595.44447  20907552.9144   20907558.4584
       159.6794
  20176589.94443  15689176.82245  24391212.9084   24391218.9104
     -4110.1274
  -7699914.38446  -5808144.22146  22916707.9954   22916714.1494
      2082.9384
   -194416.32446   2065006.14846  22434715.8124   22434721.0874
     -2123.9594
 -14705105.795 6 -11455877.624 6  21492448.994    21492444.641
       478.662
 96  6  9  1 29 30.0010000  0  8G 9G17G21G23G 6G 3G26G28
   -330910.04641    -43154.09953  25227114.4294   25227126.9134
      2515.4764
  -3248136.43548  -2488488.00247  20584193.2834   20584199.2024
      -915.5114
 -13594313.26046 -10183003.37246  22769391.6974   22769397.9334
      2255.0454
 -10051155.23348  -7708178.47747  20906677.9754   20906683.7664
       147.0044
  20299948.57443  15785300.36345  24414687.0124   24414694.5844
     -4113.6684
  -7762167.81946  -5856653.40946  22904861.8444   22904867.6234
      2067.3174
   -130428.74446   2114866.56646  22446894.0304   22446899.0124
     -2141.6144
 -14719139.160 6 -11466812.722 6  21489778.705    21489774.527
       457.038
 96  6  9  1 30  0.0010000  0  8G 9G17G21G23G 6G 3G26G28
   -406292.89642                  25212770.0844
      2509.9094
  -3220452.52548  -2466916.13147  20589461.6624   20589467.5234
      -930.2434
 -13661830.56946 -10235614.24546  22756543.0294   22756548.5974
      2245.9484
 -10055378.26248  -7711469.14847  20905874.5154   20905880.1894
       134.3334
  20423402.63144  15881498.39045  24438180.6474   24438185.5004
     -4116.7944
  -7823954.90446  -5904799.16646  22893104.2754   22893109.8664
      2051.4664
    -65931.39046   2165124.25046  22459166.1464   22459171.5034
     -2158.2564
 -14732536.659 6 -11477252.329 6  21487229.196    21487224.742
       435.976
 96  6  9  1 30 30.0010000  0  8G 9G17G21G23G 6G 3G26G28
   -481520.29142                  25198452.2194
      2504.6834
  -3192329.61148  -2445002.18547  20594813.2884   20594819.2314
      -945.3204
 -13729081.69346 -10288017.68146  22743745.3754   22743751.5414
      2237.0184
 -10059217.72148  -7714460.93447  20905144.1774   20905149.5584
       121.1324
  20546949.11844  15977768.15245  24461690.9274   24461697.5504
     -4120.3524
  -7885250.72046  -5952562.12546  22881441.1014   22881447.2554
      2034.1234
      -941.95946   2215765.32046  22471534.7574   22471540.3604
     -2175.0194
 -14745306.684 6 -11487203.009 6  21484799.496    21484794.499
       414.773
 96  6  9  1 31  0.0010000  0  8G 9G17G21G23G 6G 3G26G28
   -556583.88742    -25329.39055  25184167.7154   25184172.2744
      2499.4734
  -3163735.40648  -2422720.99147  20600253.8174   20600259.8894
      -961.2344
 -13796074.23946 -10340219.65046  22730996.7144   22731002.7634
      2229.1154
 -10062660.87948  -7717143.91447  20904488.5874   20904494.2134
       108.2184
  20670623.32544  16074137.64445  24485225.4674   24485234.4584
     -4124.8694
  -7946004.41446  -5999902.66846  22869879.1274   22869885.0354
      2015.7944
     64558.92846   2266804.96846  22483998.5614   22484002.7584
     -2192.0044
 -14757431.728 6 -11496651.101 6  21482491.946    21482487.283
       393.297
 96  6  9  1 31 30.0010000  0  8G 9G17G21G23G 6G 3G26G28
   -631493.62943    -83700.42344  25169915.3104   25169918.8504
      2494.8084
  -3134659.61548  -2400064.53347  20605787.4944   20605793.3084
      -976.7244
 -13862840.85346 -10392245.54446  22718292.0844   22718298.0394
      2222.2334
 -10065710.01448  -7719519.86347  20903908.4774   20903914.0214
        95.3874
  20794439.74444  16170617.88045  24508786.3344   24508792.0314
     -4129.3874
  -8006198.81346  -6046807.37446  22858424.4394   22858430.0894
      1997.4844
    130573.19546   2318244.64946  22496560.8014   22496565.7834
     -2208.6994
 -14768907.026 6 -11505592.904 6  21480308.246    21480303.582
       372.031
 96  6  9  1 32  0.0010000  0  8G 9G17G21G23G 6G 3G26G28
   -706265.56343   -141964.28645  25155684.4404   25155695.4584
      2490.2064
  -3105127.85048  -2377052.77647  20611406.6664   20611412.6794
      -991.8484
 -13929393.42546 -10444104.67046  22705626.9414   22705632.7324
      2214.7574
 -10068374.94448  -7721596.43147  20903401.2754   20903406.8784
        82.5124
  20918396.30443  16267207.24845  24532373.8514   24532379.2794
     -4134.3534
  -8065842.89146  -6093283.27946  22847074.5424   22847079.8764
      1978.8804
    197095.18646   2370079.97346  22509219.7594   22509225.2814
     -2226.0974
 -14779741.786 6 -11514035.578 6  21478246.784    21478241.539
       350.378
 96  6  9  1 32 30.0010000  0  8G 9G17G21G23G 6G 3G26G28
   -780915.45645   -200132.91945  25141480.3274   25141486.0594
      2485.8184
  -3075157.86048  -2353699.54147  20617109.8804   20617115.6714
     -1006.5494
 -13995736.81146 -10495800.81046  22693001.9944   22693008.0784
      2207.7074
 -10070672.99348  -7723387.11747  20902963.9524   20902969.7314
        70.3604
  21042495.06643  16363907.46845  24555989.3964   24556000.0404
     -4139.3114
  -8124938.17446  -6139331.55546  22835828.6694   22835834.3664
      1960.5814
    264139.02346   2422321.90446  22521977.1374   22521982.5054
     -2243.9634
 -14789933.542 6 -11521977.207 6  21476307.034    21476302.562
       328.610
 96  6  9  1 33  0.0010000  0  8G 9G17G21G23G 6G 3G26G28
   -855430.22344   -258196.41344  25127299.4304   25127307.0734
      2481.7184
  -3044762.36148  -2330014.74647  20622893.9704   20622899.9254
     -1019.8514
 -14061876.40546 -10547338.13546  22680416.8704   22680422.8604
      2201.3444
 -10072620.85548  -7724904.93247  20902593.1454   20902598.7134
        59.2414
  21166721.98942  16460707.48145  24579630.3144   24579636.9844
     -4142.5114
  -8183504.39446  -6184967.55346  22824683.9344   22824690.2174
      1943.6994
    331701.98646   2474968.35046  22534833.8134   22534839.0174
     -2260.3794
 -14799479.805 6 -11529415.859 6  21474490.651    21474486.004
       307.623
 96  6  9  1 33 30.0010000  0  8G 9G17G21G23G 6G 3G26G28
   -929803.23644   -316149.21645  25113147.2244   25113148.3384
      2476.4304
  -3013961.29848  -2306013.91647  20628755.0994   20628761.0894
     -1033.4994
 -14127799.67646 -10598706.88746  22667871.5804   22667877.6284
      2193.4554
 -10074210.39548  -7726143.54047  20902290.7024   20902296.2584
        46.8684
  21291053.32742  16557589.08045  24603288.5764   24603296.4534
     -4146.0934
  -8241556.14546  -6230202.66246  22813637.5224   22813643.3364
      1926.5234
    399777.38246   2528014.10046  22547789.4024   22547794.2084
     -2277.8654
 -14808378.648 6 -11536350.029 6  21472796.934    21472792.494
       285.679
 96  6  9  1 34  0.0010000  0  8G 9G17G21G23G 6G 3G26G28
  -1004022.86445   -373982.63844  25099024.9884   25099030.3804
      2471.5614
  -2982761.74048  -2281702.58347  20634692.6854   20634698.4404
     -1046.5124
 -14193484.55146 -10649889.88246  22655372.3984   22655378.2014
      2185.5834
 -10075450.47448  -7727109.83847  20902054.7754   20902060.3434
        35.8784
  21415470.43141  16654537.35445  24626961.4364   24626964.8824
     -4148.2314
  -8299109.86246  -6275049.69846  22802684.4004   22802690.4724
      1910.5284
    468363.87346   2581458.11546  22560840.0224   22560845.7194
     -2294.4754
 -14816630.754 6 -11542780.245 6  21471226.838    21471222.175
       264.525
